CAL002 RCTP-PHNL

Flight info

Callsign CAL002
Flight time 9h 50m
Altitude 31000
Route ROBIN1A ROBIN R583 BORDO Y74 KAORU DCT VELNO DCT NANJO DCT TAMAK V73 DOVAG DCT TONIK DCT 32N150E 32N155E 32N160E/N0494F330 33N170E 33N180E 31N170W 2936N16705W/N0487F340 31N170W/N0485F350 DCT HABIG
Aircraft B77W/H-SDE1E2E3FGHIJ2J3J5M1P2RWY/LB1D1

Departure

Time 2026-05-07 04:52
Airport Taiwan Taoyuan International Airport (RCTP)

Arrival

Time 2026-05-07 14:42
Airport Daniel K. Inouye International Airport (PHNL)
Time Latitude Longitude Altitude Speed Heading
2026-05-07 04:23 25.07498 121.23321 123 ft 0 kts 319°
2026-05-07 04:38 25.07497 121.23321 123 ft 0 kts 319°
2026-05-07 04:38 25.07486 121.23331 123 ft 2 kts 319°
2026-05-07 04:38 25.07475 121.23341 123 ft 2 kts 319°
2026-05-07 04:38 25.07464 121.23352 123 ft 2 kts 319°
2026-05-07 04:39 25.07452 121.23363 123 ft 2 kts 319°
2026-05-07 04:39 25.07445 121.23370 123 ft 1 kts 319°
2026-05-07 04:39 25.07435 121.23381 123 ft 2 kts 298°
2026-05-07 04:39 25.07430 121.23397 123 ft 2 kts 274°
2026-05-07 04:40 25.07431 121.23413 123 ft 2 kts 253°
2026-05-07 04:40 25.07437 121.23427 123 ft 1 kts 232°
2026-05-07 04:40 25.07440 121.23431 123 ft 0 kts 229°
2026-05-07 04:42 25.07437 121.23428 123 ft 2 kts 229°
2026-05-07 04:42 25.07420 121.23407 123 ft 5 kts 229°
2026-05-07 04:43 25.07385 121.23363 123 ft 10 kts 229°
2026-05-07 04:43 25.07336 121.23299 123 ft 10 kts 229°
2026-05-07 04:43 25.07295 121.23247 123 ft 8 kts 229°
2026-05-07 04:43 25.07260 121.23202 123 ft 7 kts 229°
2026-05-07 04:44 25.07232 121.23176 123 ft 2 kts 186°
2026-05-07 04:44 25.07206 121.23180 123 ft 4 kts 167°
2026-05-07 04:44 25.07178 121.23199 123 ft 5 kts 144°
2026-05-07 04:44 25.07139 121.23216 123 ft 6 kts 189°
2026-05-07 04:45 25.07100 121.23177 123 ft 8 kts 233°
2026-05-07 04:45 25.07059 121.23120 123 ft 10 kts 229°
2026-05-07 04:45 25.07001 121.23046 123 ft 14 kts 229°
2026-05-07 04:45 25.06926 121.22952 123 ft 17 kts 229°
2026-05-07 04:46 25.06852 121.22857 123 ft 14 kts 229°
2026-05-07 04:46 25.06789 121.22778 123 ft 12 kts 229°
2026-05-07 04:46 25.06739 121.22714 123 ft 10 kts 229°
2026-05-07 04:46 25.06698 121.22662 123 ft 7 kts 229°
2026-05-07 04:47 25.06662 121.22620 123 ft 6 kts 212°
2026-05-07 04:47 25.06633 121.22621 123 ft 3 kts 152°
2026-05-07 04:47 25.06606 121.22637 123 ft 5 kts 150°
2026-05-07 04:47 25.06564 121.22636 123 ft 7 kts 218°
2026-05-07 04:48 25.06523 121.22589 123 ft 9 kts 229°
2026-05-07 04:48 25.06475 121.22528 123 ft 11 kts 229°
2026-05-07 04:48 25.06427 121.22466 123 ft 9 kts 229°
2026-05-07 04:48 25.06381 121.22408 123 ft 10 kts 229°
2026-05-07 04:49 25.06331 121.22346 123 ft 11 kts 229°
2026-05-07 04:49 25.06281 121.22282 123 ft 10 kts 229°
2026-05-07 04:49 25.06234 121.22242 123 ft 7 kts 187°
2026-05-07 04:49 25.06194 121.22258 123 ft 5 kts 142°
2026-05-07 04:50 25.06166 121.22285 123 ft 5 kts 139°
2026-05-07 04:50 25.06131 121.22319 123 ft 8 kts 136°
2026-05-07 04:50 25.06100 121.22362 123 ft 5 kts 86°
2026-05-07 04:50 25.06123 121.22400 123 ft 11 kts 49°
2026-05-07 04:51 25.06299 121.22622 123 ft 72 kts 49°
2026-05-07 04:51 25.06777 121.23230 123 ft 136 kts 49°
2026-05-07 04:51 25.07521 121.24174 124 ft 191 kts 49°
2026-05-07 04:51 25.08443 121.25358 563 ft 207 kts 48°
2026-05-07 04:52 25.09383 121.26566 1335 ft 212 kts 48°
2026-05-07 04:52 25.10362 121.27827 1664 ft 224 kts 49°
2026-05-07 04:52 25.11394 121.29211 1869 ft 245 kts 51°
2026-05-07 04:52 25.12513 121.30759 2072 ft 266 kts 47°
2026-05-07 04:53 25.13871 121.32214 2430 ft 281 kts 42°
2026-05-07 04:53 25.15307 121.33717 3004 ft 288 kts 45°
2026-05-07 04:53 25.16722 121.35281 3609 ft 293 kts 46°
2026-05-07 04:53 25.18131 121.36938 4175 ft 300 kts 47°
2026-05-07 04:54 25.19583 121.38641 4658 ft 311 kts 47°
2026-05-07 04:54 25.21092 121.40391 5267 ft 317 kts 47°
2026-05-07 04:54 25.22616 121.42150 5978 ft 319 kts 47°
2026-05-07 04:54 25.24155 121.43925 6644 ft 322 kts 47°
2026-05-07 04:55 25.25727 121.45737 7285 ft 328 kts 46°
2026-05-07 04:55 25.27301 121.47553 7858 ft 332 kts 46°
2026-05-07 04:55 25.28855 121.49441 8510 ft 335 kts 55°
2026-05-07 04:55 25.29842 121.51797 9002 ft 340 kts 79°
2026-05-07 04:56 25.29945 121.54389 9475 ft 343 kts 95°
2026-05-07 04:56 25.29933 121.57020 10120 ft 346 kts 86°
2026-05-07 04:56 25.30211 121.59686 10601 ft 356 kts 81°
2026-05-07 04:56 25.30663 121.62406 10882 ft 370 kts 78°
2026-05-07 04:57 25.31201 121.65254 11180 ft 384 kts 78°
2026-05-07 04:57 25.31766 121.68183 11468 ft 398 kts 78°
2026-05-07 04:57 25.32351 121.71201 11925 ft 405 kts 78°
2026-05-07 04:57 25.32941 121.74243 12495 ft 409 kts 78°
2026-05-07 04:58 25.33536 121.77308 13079 ft 412 kts 77°
2026-05-07 04:58 25.34137 121.80408 13675 ft 415 kts 77°
2026-05-07 04:58 25.34749 121.83562 14206 ft 419 kts 77°
2026-05-07 04:58 25.35352 121.86674 14735 ft 422 kts 77°
2026-05-07 04:59 25.35974 121.89889 15254 ft 426 kts 77°
2026-05-07 04:59 25.36589 121.93066 15784 ft 429 kts 78°
2026-05-07 04:59 25.37217 121.96323 16294 ft 433 kts 78°
2026-05-07 04:59 25.37847 121.99586 16772 ft 436 kts 78°
2026-05-07 05:00 25.38475 122.02846 17282 ft 439 kts 78°
2026-05-07 05:00 25.39105 122.06121 17795 ft 441 kts 78°
2026-05-07 05:00 25.39745 122.09447 18292 ft 444 kts 78°
2026-05-07 05:00 25.40385 122.12781 18730 ft 448 kts 78°
2026-05-07 05:01 25.41039 122.16191 19185 ft 451 kts 78°
2026-05-07 05:01 25.41686 122.19560 19638 ft 454 kts 77°
2026-05-07 05:01 25.42588 122.22894 20070 ft 456 kts 70°
2026-05-07 05:01 25.43663 122.26222 20507 ft 459 kts 69°
2026-05-07 05:02 25.44751 122.29560 20947 ft 462 kts 69°
2026-05-07 05:02 25.45831 122.32877 21359 ft 465 kts 70°
2026-05-07 05:02 25.46930 122.36262 21742 ft 469 kts 69°
2026-05-07 05:02 25.48038 122.39679 22117 ft 473 kts 70°
2026-05-07 05:03 25.49145 122.43097 22583 ft 474 kts 69°
2026-05-07 05:03 25.50241 122.46488 23042 ft 475 kts 69°
2026-05-07 05:03 25.51368 122.49937 23373 ft 480 kts 68°
2026-05-07 05:03 25.52560 122.53413 23747 ft 483 kts 68°
2026-05-07 05:04 25.53755 122.56881 24168 ft 485 kts 68°
2026-05-07 05:04 25.54958 122.60378 24565 ft 488 kts 68°
2026-05-07 05:04 25.56167 122.63902 24916 ft 491 kts 68°
2026-05-07 05:04 25.57368 122.67408 25245 ft 495 kts 68°
2026-05-07 05:05 25.58603 122.71021 25589 ft 499 kts 68°
2026-05-07 05:05 25.59831 122.74616 25976 ft 501 kts 68°
2026-05-07 05:05 25.61056 122.78209 26345 ft 504 kts 68°
2026-05-07 05:05 25.62298 122.81856 26667 ft 508 kts 68°
2026-05-07 05:06 25.63536 122.85493 26993 ft 511 kts 68°
2026-05-07 05:06 25.64779 122.89162 27350 ft 513 kts 68°
2026-05-07 05:06 25.66034 122.92894 27747 ft 515 kts 68°
2026-05-07 05:06 25.67276 122.96594 28115 ft 517 kts 68°
2026-05-07 05:07 25.68528 123.00325 28442 ft 520 kts 68°
2026-05-07 05:07 25.69796 123.04095 28760 ft 523 kts 68°
2026-05-07 05:07 25.71073 123.07891 29100 ft 525 kts 68°
2026-05-07 05:07 25.72334 123.11641 29506 ft 526 kts 68°
2026-05-07 05:08 25.73607 123.15431 30028 ft 524 kts 68°
2026-05-07 05:08 25.74867 123.19190 30587 ft 520 kts 67°
2026-05-07 05:08 25.76059 123.22747 30913 ft 522 kts 67°
2026-05-07 05:08 25.77374 123.26670 30940 ft 522 kts 67°
2026-05-07 05:09 25.79882 123.34174 30938 ft 519 kts 67°
2026-05-07 05:09 25.82383 123.41668 30939 ft 521 kts 67°
2026-05-07 05:10 25.84893 123.49204 30941 ft 519 kts 67°
2026-05-07 05:10 25.87382 123.56692 30940 ft 520 kts 67°
2026-05-07 05:11 25.89872 123.64201 30948 ft 521 kts 68°
2026-05-07 05:11 25.92375 123.71770 30942 ft 521 kts 68°
2026-05-07 05:12 25.94868 123.79324 30941 ft 522 kts 68°
2026-05-07 05:12 25.97352 123.86864 30930 ft 522 kts 68°
2026-05-07 05:13 25.99836 123.94420 30927 ft 522 kts 68°
2026-05-07 05:13 26.01731 124.02190 30929 ft 524 kts 82°
2026-05-07 05:14 26.02338 124.10279 30932 ft 526 kts 85°
2026-05-07 05:14 26.02856 124.18353 30933 ft 524 kts 85°
2026-05-07 05:15 26.03368 124.26388 30937 ft 527 kts 85°
2026-05-07 05:15 26.03880 124.34499 30934 ft 525 kts 85°
2026-05-07 05:16 26.04389 124.42621 30941 ft 527 kts 85°
2026-05-07 05:16 26.04891 124.50715 30943 ft 526 kts 85°
2026-05-07 05:17 26.05388 124.58786 30949 ft 527 kts 85°
2026-05-07 05:17 26.05881 124.66891 30942 ft 525 kts 85°
2026-05-07 05:18 26.06370 124.74984 30941 ft 526 kts 85°
2026-05-07 05:18 26.06856 124.83099 30943 ft 526 kts 85°
2026-05-07 05:19 26.07336 124.91196 30950 ft 527 kts 85°
2026-05-07 05:19 26.07812 124.99308 30952 ft 526 kts 85°
2026-05-07 05:20 26.08281 125.07359 30954 ft 527 kts 85°
2026-05-07 05:20 26.08750 125.15506 30950 ft 525 kts 85°
2026-05-07 05:21 26.09439 125.27621 30957 ft 526 kts 85°
2026-05-07 05:22 26.09896 125.35763 30961 ft 527 kts 85°
2026-05-07 05:22 26.10348 125.43890 30965 ft 528 kts 85°
2026-05-07 05:23 26.10794 125.51982 30967 ft 526 kts 85°
2026-05-07 05:23 26.11236 125.60098 30971 ft 527 kts 85°
2026-05-07 05:24 26.11672 125.68191 30960 ft 527 kts 86°
2026-05-07 05:24 26.12104 125.76285 30967 ft 528 kts 86°
2026-05-07 05:25 26.12534 125.84422 30965 ft 527 kts 86°
2026-05-07 05:25 26.12959 125.92565 30967 ft 527 kts 86°
2026-05-07 05:26 26.13376 126.00619 30969 ft 525 kts 86°
2026-05-07 05:26 26.13791 126.08748 30962 ft 526 kts 86°
2026-05-07 05:27 26.14188 126.16830 30951 ft 527 kts 88°
2026-05-07 05:27 26.13402 126.24918 30965 ft 528 kts 103°
2026-05-07 05:28 26.11693 126.32861 30962 ft 528 kts 104°
2026-05-07 05:28 26.09957 126.40755 30967 ft 528 kts 104°
2026-05-07 05:29 26.08210 126.48646 30967 ft 527 kts 104°
2026-05-07 05:29 26.06461 126.56518 30967 ft 527 kts 104°
2026-05-07 05:30 26.04697 126.64421 30969 ft 528 kts 104°
2026-05-07 05:30 26.02931 126.72311 30963 ft 526 kts 104°
2026-05-07 05:31 26.01159 126.80202 30967 ft 528 kts 104°
2026-05-07 05:31 25.99384 126.88084 30968 ft 527 kts 104°
2026-05-07 05:32 25.97605 126.95959 30971 ft 527 kts 104°
2026-05-07 05:32 25.95820 127.03841 30973 ft 527 kts 105°
2026-05-07 05:33 25.94027 127.11739 30975 ft 528 kts 104°
2026-05-07 05:33 25.92228 127.19636 30977 ft 527 kts 104°
2026-05-07 05:34 25.90689 127.27510 30970 ft 526 kts 95°
2026-05-07 05:34 25.90881 127.35628 30971 ft 524 kts 78°
2026-05-07 05:35 25.92610 127.43448 30975 ft 524 kts 73°
2026-05-07 05:35 25.94491 127.51241 30978 ft 523 kts 73°
2026-05-07 05:36 25.96357 127.59020 30978 ft 526 kts 73°
2026-05-07 05:36 25.98233 127.66878 30972 ft 525 kts 73°
2026-05-07 05:37 26.00078 127.74637 30971 ft 524 kts 73°
2026-05-07 05:37 26.01939 127.82491 30969 ft 526 kts 73°
2026-05-07 05:38 26.03785 127.90305 30977 ft 524 kts 73°
2026-05-07 05:38 26.05633 127.98144 30976 ft 525 kts 73°
2026-05-07 05:39 26.07475 128.05988 30976 ft 523 kts 73°
2026-05-07 05:39 26.09304 128.13788 30975 ft 524 kts 73°
2026-05-07 05:40 26.11628 128.21403 30965 ft 521 kts 61°
2026-05-07 05:40 26.15632 128.28056 30966 ft 514 kts 44°
2026-05-07 05:41 26.20984 128.33186 30959 ft 505 kts 28°
2026-05-07 05:41 26.27117 128.36877 30957 ft 502 kts 22°
2026-05-07 05:42 26.33328 128.40401 30956 ft 501 kts 22°
2026-05-07 05:42 26.39555 128.43953 30956 ft 503 kts 22°
2026-05-07 05:43 26.45790 128.47520 30956 ft 502 kts 22°
2026-05-07 05:43 26.52002 128.51085 30957 ft 503 kts 22°
2026-05-07 05:44 26.58210 128.54652 30958 ft 503 kts 22°
2026-05-07 05:44 26.64445 128.58243 30957 ft 503 kts 22°
2026-05-07 05:45 26.70649 128.61819 30958 ft 503 kts 22°
2026-05-07 05:45 26.76877 128.65414 30955 ft 504 kts 23°
2026-05-07 05:46 26.83107 128.69017 30948 ft 504 kts 23°
2026-05-07 05:46 26.89384 128.72650 30949 ft 506 kts 23°
2026-05-07 05:47 26.95617 128.76263 30947 ft 506 kts 23°
2026-05-07 05:47 27.01861 128.79887 30948 ft 504 kts 23°
2026-05-07 05:48 27.08083 128.83501 30951 ft 506 kts 23°
2026-05-07 05:48 27.14310 128.87125 30952 ft 503 kts 23°
2026-05-07 05:49 27.20553 128.90761 30951 ft 504 kts 23°
2026-05-07 05:49 27.26786 128.94395 30951 ft 505 kts 23°
2026-05-07 05:50 27.33003 128.98027 30951 ft 505 kts 23°
2026-05-07 05:50 27.39260 129.01686 30952 ft 505 kts 23°
2026-05-07 05:51 27.45454 129.05431 30945 ft 509 kts 28°
2026-05-07 05:51 27.50850 129.10680 30949 ft 519 kts 46°
2026-05-07 05:52 27.54735 129.17560 30951 ft 528 kts 64°
2026-05-07 05:52 27.56984 129.25420 30958 ft 531 kts 73°
2026-05-07 05:53 27.58933 129.33456 30960 ft 531 kts 73°
2026-05-07 05:53 27.60869 129.41454 30966 ft 531 kts 73°
2026-05-07 05:54 27.62803 129.49449 30974 ft 531 kts 73°
2026-05-07 05:54 27.64737 129.57463 30978 ft 529 kts 73°
2026-05-07 05:55 27.66663 129.65457 30980 ft 531 kts 73°
2026-05-07 05:55 27.68592 129.73485 30971 ft 530 kts 73°
2026-05-07 05:56 27.70514 129.81503 30968 ft 533 kts 73°
2026-05-07 05:56 27.72433 129.89531 30964 ft 532 kts 73°
2026-05-07 05:57 27.74357 129.97603 30959 ft 532 kts 73°
2026-05-07 05:57 27.76266 130.05633 30958 ft 532 kts 73°
2026-05-07 05:58 27.78168 130.13655 30956 ft 531 kts 73°
2026-05-07 05:58 27.80071 130.21704 30955 ft 531 kts 73°
2026-05-07 05:59 27.81969 130.29755 30956 ft 530 kts 73°
2026-05-07 05:59 27.83849 130.37750 30956 ft 531 kts 73°
2026-05-07 06:00 27.85741 130.45824 30958 ft 531 kts 73°
2026-05-07 06:00 27.87629 130.53915 30960 ft 531 kts 73°
2026-05-07 06:01 27.89476 130.61974 30961 ft 531 kts 73°
2026-05-07 06:01 27.91325 130.70065 30946 ft 532 kts 74°
2026-05-07 06:02 27.93156 130.78102 30951 ft 532 kts 74°
2026-05-07 06:02 27.94999 130.86211 30950 ft 532 kts 73°
2026-05-07 06:03 27.96833 130.94302 30947 ft 533 kts 74°
2026-05-07 06:03 27.98665 131.02408 30955 ft 532 kts 74°
2026-05-07 06:04 28.00483 131.10478 30948 ft 533 kts 74°
2026-05-07 06:04 28.02309 131.18602 30948 ft 532 kts 73°
2026-05-07 06:05 28.04120 131.26685 30951 ft 533 kts 73°
2026-05-07 06:05 28.05929 131.34786 30954 ft 532 kts 73°
2026-05-07 06:06 28.07734 131.42889 30952 ft 532 kts 73°
2026-05-07 06:06 28.09532 131.50984 30956 ft 531 kts 73°
2026-05-07 06:07 28.11330 131.59105 30956 ft 531 kts 73°
2026-05-07 06:07 28.13108 131.67163 30947 ft 529 kts 74°
2026-05-07 06:08 28.14881 131.75221 30945 ft 529 kts 74°
2026-05-07 06:08 28.16654 131.83299 30944 ft 529 kts 74°
2026-05-07 06:09 28.18418 131.91363 30947 ft 528 kts 74°
2026-05-07 06:09 28.20173 131.99409 30946 ft 528 kts 73°
2026-05-07 06:10 28.21924 132.07461 30947 ft 528 kts 73°
2026-05-07 06:10 28.23670 132.15517 30953 ft 527 kts 74°
2026-05-07 06:11 28.25413 132.23579 30955 ft 528 kts 73°
2026-05-07 06:11 28.27156 132.31668 30955 ft 527 kts 74°
2026-05-07 06:12 28.28880 132.39693 30955 ft 527 kts 73°
2026-05-07 06:12 28.30607 132.47759 30956 ft 525 kts 73°
2026-05-07 06:13 28.32306 132.55713 30957 ft 525 kts 73°
2026-05-07 06:13 28.34021 132.63776 30958 ft 524 kts 73°
2026-05-07 06:14 28.35720 132.71776 30949 ft 524 kts 74°
2026-05-07 06:14 28.37412 132.79785 30951 ft 524 kts 74°
2026-05-07 06:15 28.39102 132.87828 30949 ft 524 kts 74°
2026-05-07 06:15 28.40784 132.95860 30954 ft 523 kts 74°
2026-05-07 06:16 28.42459 133.03877 30953 ft 522 kts 74°
2026-05-07 06:16 28.44127 133.11883 30950 ft 523 kts 74°
2026-05-07 06:17 28.45786 133.19878 30952 ft 522 kts 74°
2026-05-07 06:17 28.47446 133.27898 30953 ft 522 kts 74°
2026-05-07 06:18 28.49096 133.35899 30954 ft 522 kts 74°
2026-05-07 06:18 28.50740 133.43893 30955 ft 521 kts 73°
2026-05-07 06:19 28.52387 133.51924 30956 ft 520 kts 73°
2026-05-07 06:19 28.54018 133.59904 30961 ft 520 kts 73°
2026-05-07 06:20 28.55643 133.67883 30951 ft 518 kts 74°
2026-05-07 06:20 28.57263 133.75862 30945 ft 519 kts 74°
2026-05-07 06:21 28.59146 133.83710 30946 ft 514 kts 66°
2026-05-07 06:21 28.61695 133.91292 30934 ft 513 kts 65°
2026-05-07 06:22 28.64251 133.98865 30936 ft 513 kts 65°
2026-05-07 06:22 28.68067 134.10219 30938 ft 514 kts 65°
2026-05-07 06:23 28.70594 134.17770 30943 ft 513 kts 65°
2026-05-07 06:23 28.73133 134.25374 30934 ft 513 kts 65°
2026-05-07 06:24 28.75646 134.32918 30942 ft 514 kts 65°
2026-05-07 06:24 28.78182 134.40549 30944 ft 512 kts 65°
2026-05-07 06:25 28.80695 134.48128 30943 ft 513 kts 65°
2026-05-07 06:25 28.83200 134.55698 30943 ft 511 kts 65°
2026-05-07 06:26 28.85702 134.63274 30945 ft 513 kts 65°
2026-05-07 06:26 28.88207 134.70879 30939 ft 511 kts 65°
2026-05-07 06:27 28.90692 134.78438 30940 ft 513 kts 65°
2026-05-07 06:27 28.93192 134.86060 30943 ft 512 kts 65°
2026-05-07 06:28 28.95668 134.93626 30945 ft 512 kts 65°
2026-05-07 06:28 28.98159 135.01253 30948 ft 512 kts 65°
2026-05-07 06:29 29.00621 135.08812 30951 ft 511 kts 65°
2026-05-07 06:29 29.03100 135.16432 30951 ft 514 kts 65°
2026-05-07 06:30 29.05567 135.24037 30952 ft 512 kts 65°
2026-05-07 06:30 29.08049 135.31706 30962 ft 513 kts 66°
2026-05-07 06:31 29.10516 135.39343 30963 ft 515 kts 66°
2026-05-07 06:31 29.12996 135.47043 30966 ft 515 kts 66°
2026-05-07 06:32 29.15455 135.54691 30968 ft 515 kts 67°
2026-05-07 06:32 29.17919 135.62370 30971 ft 515 kts 67°
2026-05-07 06:33 29.20370 135.70030 30957 ft 515 kts 68°
2026-05-07 06:33 29.22833 135.77739 30967 ft 515 kts 68°
2026-05-07 06:34 29.25276 135.85408 30963 ft 516 kts 68°
2026-05-07 06:34 29.27738 135.93152 30968 ft 515 kts 68°
2026-05-07 06:35 29.30164 136.00801 30967 ft 515 kts 69°
2026-05-07 06:35 29.32609 136.08530 30966 ft 514 kts 69°
2026-05-07 06:36 29.35030 136.16196 30972 ft 516 kts 69°
2026-05-07 06:36 29.37462 136.23918 30978 ft 515 kts 69°
2026-05-07 06:37 29.39886 136.31630 30977 ft 516 kts 69°
2026-05-07 06:37 29.42308 136.39354 30979 ft 517 kts 69°
2026-05-07 06:38 29.44729 136.47095 30982 ft 517 kts 70°
2026-05-07 06:38 29.47148 136.54846 30981 ft 514 kts 70°
2026-05-07 06:39 29.49528 136.62492 30981 ft 516 kts 70°
2026-05-07 06:39 29.51951 136.70291 30979 ft 515 kts 71°
2026-05-07 06:40 29.54359 136.78058 30980 ft 514 kts 71°
2026-05-07 06:40 29.56741 136.85762 30979 ft 513 kts 71°
2026-05-07 06:41 29.59123 136.93486 30982 ft 514 kts 71°
2026-05-07 06:41 29.61489 137.01173 30978 ft 513 kts 71°
2026-05-07 06:42 29.63870 137.08929 30988 ft 512 kts 72°
2026-05-07 06:42 29.66226 137.16623 30997 ft 513 kts 72°
2026-05-07 06:43 29.68589 137.24356 30996 ft 513 kts 72°
2026-05-07 06:43 29.70927 137.32024 30998 ft 513 kts 72°
2026-05-07 06:44 29.73285 137.39777 30997 ft 514 kts 72°
2026-05-07 06:44 29.75639 137.47536 30998 ft 514 kts 72°
2026-05-07 06:45 29.77988 137.55299 31000 ft 515 kts 72°
2026-05-07 06:45 29.80342 137.63094 30998 ft 514 kts 72°
2026-05-07 06:46 29.82676 137.70842 30997 ft 515 kts 72°
2026-05-07 06:46 29.85021 137.78645 30998 ft 517 kts 72°
2026-05-07 06:47 29.87358 137.86444 30994 ft 515 kts 72°
2026-05-07 06:47 29.89683 137.94215 30997 ft 518 kts 73°
2026-05-07 06:48 29.92031 138.02089 30996 ft 517 kts 73°
2026-05-07 06:48 29.94348 138.09874 30995 ft 515 kts 73°
2026-05-07 06:49 29.96667 138.17686 31000 ft 515 kts 73°
2026-05-07 06:49 29.98981 138.25501 31003 ft 515 kts 73°
2026-05-07 06:50 30.01285 138.33301 31004 ft 517 kts 73°
2026-05-07 06:50 30.03590 138.41122 31004 ft 515 kts 73°
2026-05-07 06:51 30.05897 138.48972 31007 ft 515 kts 74°
2026-05-07 06:51 30.08182 138.56764 31012 ft 516 kts 74°
2026-05-07 06:52 30.10479 138.64619 31011 ft 516 kts 74°
2026-05-07 06:52 30.12763 138.72447 30997 ft 515 kts 75°
2026-05-07 06:53 30.15034 138.80249 31006 ft 516 kts 75°
2026-05-07 06:53 30.17309 138.88088 31003 ft 516 kts 75°
2026-05-07 06:54 30.19581 138.95935 31011 ft 516 kts 75°
2026-05-07 06:54 30.21850 139.03786 31008 ft 515 kts 75°
2026-05-07 06:55 30.24101 139.11601 31008 ft 516 kts 75°
2026-05-07 06:55 30.26359 139.19458 31017 ft 515 kts 75°
2026-05-07 06:56 30.28607 139.27300 31016 ft 516 kts 75°
2026-05-07 06:56 30.30852 139.35152 31017 ft 516 kts 75°
2026-05-07 06:57 30.33101 139.43036 31019 ft 516 kts 75°
2026-05-07 06:57 30.35341 139.50913 31021 ft 516 kts 75°
2026-05-07 06:58 30.37577 139.58792 31024 ft 516 kts 75°
2026-05-07 06:58 30.39814 139.66695 31026 ft 516 kts 75°
2026-05-07 06:59 30.42027 139.74536 31026 ft 515 kts 75°
2026-05-07 06:59 30.44253 139.82440 31027 ft 516 kts 75°
2026-05-07 07:00 30.46465 139.90318 31027 ft 517 kts 75°
2026-05-07 07:00 30.48681 139.98230 31031 ft 517 kts 75°
2026-05-07 07:01 30.50888 140.06130 31030 ft 518 kts 75°
2026-05-07 07:01 30.53102 140.14076 31031 ft 519 kts 76°
2026-05-07 07:02 30.55310 140.22021 31036 ft 518 kts 75°
2026-05-07 07:02 30.57502 140.29930 31037 ft 518 kts 76°
2026-05-07 07:03 30.59703 140.37894 31043 ft 518 kts 75°
2026-05-07 07:03 30.61897 140.45848 31044 ft 517 kts 75°
2026-05-07 07:04 30.64083 140.53799 31042 ft 519 kts 75°
2026-05-07 07:04 30.66257 140.61725 31043 ft 518 kts 75°
2026-05-07 07:05 30.68430 140.69673 31045 ft 519 kts 75°
2026-05-07 07:05 30.70574 140.77531 31044 ft 519 kts 76°
2026-05-07 07:06 30.72740 140.85494 31049 ft 520 kts 76°
2026-05-07 07:06 30.74914 140.93504 31041 ft 519 kts 76°
2026-05-07 07:07 30.77070 141.01474 31046 ft 520 kts 76°
2026-05-07 07:07 30.79230 141.09477 31050 ft 518 kts 76°
2026-05-07 07:08 30.81393 141.17514 31054 ft 520 kts 76°
2026-05-07 07:08 30.83535 141.25496 31046 ft 519 kts 76°
2026-05-07 07:09 30.85676 141.33495 31054 ft 520 kts 76°
2026-05-07 07:09 30.87815 141.41510 31061 ft 521 kts 76°
2026-05-07 07:10 30.89947 141.49519 31060 ft 520 kts 76°
2026-05-07 07:10 30.92083 141.57567 31063 ft 520 kts 76°
2026-05-07 07:11 30.94207 141.65591 31068 ft 519 kts 76°
2026-05-07 07:11 30.96336 141.73654 31064 ft 522 kts 76°
2026-05-07 07:12 30.98445 141.81668 31073 ft 521 kts 76°
2026-05-07 07:12 31.00573 141.89775 31082 ft 521 kts 76°
2026-05-07 07:13 31.02677 141.97815 31077 ft 522 kts 76°
2026-05-07 07:13 31.04781 142.05876 31078 ft 522 kts 76°
2026-05-07 07:14 31.06885 142.13959 31079 ft 521 kts 76°
2026-05-07 07:14 31.08984 142.22044 31080 ft 523 kts 76°
2026-05-07 07:15 31.11073 142.30116 31061 ft 522 kts 76°
2026-05-07 07:15 31.13152 142.38174 31066 ft 522 kts 76°
2026-05-07 07:16 31.15246 142.46309 31073 ft 522 kts 75°
2026-05-07 07:16 31.17322 142.54401 31077 ft 523 kts 75°
2026-05-07 07:17 31.19388 142.62477 31076 ft 523 kts 75°
2026-05-07 07:17 31.21463 142.70610 31069 ft 523 kts 76°
2026-05-07 07:18 31.23527 142.78723 31068 ft 523 kts 76°
2026-05-07 07:18 31.25590 142.86859 31071 ft 524 kts 76°
2026-05-07 07:19 31.27651 142.95007 31069 ft 523 kts 75°
2026-05-07 07:19 31.29685 143.03075 31072 ft 520 kts 75°
2026-05-07 07:20 31.31737 143.11238 31075 ft 524 kts 76°
2026-05-07 07:20 31.33778 143.19374 31075 ft 521 kts 76°
2026-05-07 07:21 31.35805 143.27486 31077 ft 522 kts 75°
2026-05-07 07:21 31.37831 143.35617 31081 ft 523 kts 75°
2026-05-07 07:22 31.39854 143.43759 31081 ft 522 kts 75°
2026-05-07 07:22 31.41877 143.51927 31087 ft 524 kts 76°
2026-05-07 07:23 31.43891 143.60078 31085 ft 523 kts 75°
2026-05-07 07:23 31.45901 143.68240 31083 ft 523 kts 76°
2026-05-07 07:24 31.47903 143.76396 31086 ft 523 kts 76°
2026-05-07 07:24 31.49895 143.84534 31083 ft 522 kts 76°
2026-05-07 07:25 31.52879 143.96771 31085 ft 521 kts 76°
2026-05-07 07:26 31.54860 144.04927 31088 ft 523 kts 76°
2026-05-07 07:26 31.56846 144.13129 31086 ft 521 kts 76°
2026-05-07 07:27 31.58821 144.21307 31090 ft 523 kts 75°
2026-05-07 07:27 31.60786 144.29472 31088 ft 523 kts 76°
2026-05-07 07:28 31.62757 144.37685 31091 ft 523 kts 76°
2026-05-07 07:28 31.64703 144.45816 31088 ft 521 kts 76°
2026-05-07 07:29 31.66670 144.54066 31094 ft 522 kts 76°
2026-05-07 07:29 31.68602 144.62193 31095 ft 521 kts 76°
2026-05-07 07:30 31.70551 144.70416 31089 ft 522 kts 76°
2026-05-07 07:30 31.72486 144.78606 31092 ft 520 kts 76°
2026-05-07 07:31 31.74411 144.86778 31094 ft 521 kts 76°
2026-05-07 07:31 31.76332 144.94960 31097 ft 524 kts 76°
2026-05-07 07:32 31.78245 145.03136 31096 ft 520 kts 76°
2026-05-07 07:32 31.80167 145.11371 31098 ft 524 kts 76°
2026-05-07 07:33 31.82083 145.19611 31103 ft 523 kts 76°
2026-05-07 07:33 31.83988 145.27826 31105 ft 524 kts 76°
2026-05-07 07:34 31.85884 145.36028 31106 ft 523 kts 76°
2026-05-07 07:34 31.87783 145.44273 31109 ft 523 kts 76°
2026-05-07 07:35 31.89677 145.52519 31109 ft 523 kts 76°
2026-05-07 07:35 31.91569 145.60788 31114 ft 525 kts 76°
2026-05-07 07:36 31.93460 145.69073 31106 ft 525 kts 76°
2026-05-07 07:36 31.95339 145.77339 31110 ft 524 kts 76°
2026-05-07 07:37 31.97222 145.85646 31115 ft 526 kts 76°
2026-05-07 07:37 31.99092 145.93921 31118 ft 525 kts 76°
2026-05-07 07:38 32.00131 146.02364 31125 ft 523 kts 89°
2026-05-07 07:38 32.00385 146.10918 31123 ft 522 kts 90°
2026-05-07 07:39 32.00571 146.19475 31128 ft 521 kts 90°
2026-05-07 07:39 32.00720 146.27989 31128 ft 524 kts 90°
2026-05-07 07:40 32.00845 146.36513 31128 ft 521 kts 90°
2026-05-07 07:40 32.00955 146.45006 31136 ft 522 kts 91°
2026-05-07 07:41 32.01054 146.53536 31138 ft 521 kts 90°
2026-05-07 07:41 32.01144 146.62027 31141 ft 520 kts 91°
2026-05-07 07:42 32.01228 146.70554 31134 ft 517 kts 91°
2026-05-07 07:42 32.01303 146.78981 31133 ft 519 kts 91°
2026-05-07 07:43 32.01373 146.87465 31132 ft 520 kts 91°
2026-05-07 07:43 32.01437 146.95944 31127 ft 517 kts 91°
2026-05-07 07:44 32.01496 147.04399 31125 ft 517 kts 91°
2026-05-07 07:44 32.01548 147.12961 31137 ft 521 kts 91°
2026-05-07 07:45 32.01596 147.21429 31137 ft 520 kts 91°
2026-05-07 07:45 32.01637 147.29950 31130 ft 518 kts 91°
2026-05-07 07:46 32.01673 147.38434 31129 ft 522 kts 91°
2026-05-07 07:46 32.01703 147.46945 31132 ft 521 kts 91°
2026-05-07 07:47 32.01727 147.55464 31134 ft 521 kts 91°
2026-05-07 07:47 32.01746 147.63957 31136 ft 522 kts 91°
2026-05-07 07:48 32.01759 147.72453 31133 ft 522 kts 91°
2026-05-07 07:48 32.01766 147.80994 31132 ft 522 kts 91°
2026-05-07 07:49 32.01768 147.89545 31134 ft 524 kts 91°
2026-05-07 07:49 32.01763 147.98120 31137 ft 525 kts 91°
2026-05-07 07:50 32.01754 148.06680 31145 ft 523 kts 91°
2026-05-07 07:50 32.01738 148.15199 31155 ft 525 kts 91°
2026-05-07 07:51 32.01717 148.23784 31159 ft 524 kts 91°
2026-05-07 07:51 32.01690 148.32338 31163 ft 525 kts 91°
2026-05-07 07:52 32.01657 148.40915 31163 ft 524 kts 91°
2026-05-07 07:52 32.01619 148.49487 31164 ft 523 kts 91°
2026-05-07 07:53 32.01574 148.58052 31162 ft 524 kts 91°
2026-05-07 07:53 32.01524 148.66576 31161 ft 526 kts 91°
2026-05-07 07:54 32.01468 148.75131 31156 ft 523 kts 91°
2026-05-07 07:54 32.01407 148.83682 31158 ft 525 kts 91°
2026-05-07 07:55 32.01339 148.92300 31158 ft 526 kts 91°
2026-05-07 07:55 32.01266 149.00882 31160 ft 524 kts 91°
2026-05-07 07:56 32.01186 149.09482 31160 ft 526 kts 91°
2026-05-07 07:56 32.01102 149.18005 31164 ft 524 kts 91°
2026-05-07 07:57 32.01011 149.26607 31167 ft 526 kts 91°
2026-05-07 07:57 32.00915 149.35181 31168 ft 524 kts 91°
2026-05-07 07:58 32.00813 149.43732 31171 ft 525 kts 91°
2026-05-07 07:58 32.00705 149.52283 31172 ft 524 kts 91°
2026-05-07 07:59 32.00592 149.60857 31176 ft 526 kts 91°
2026-05-07 07:59 32.00473 149.69415 31168 ft 523 kts 91°
2026-05-07 08:00 32.00348 149.77994 31171 ft 526 kts 91°
2026-05-07 08:00 32.00216 149.86610 31174 ft 525 kts 91°
2026-05-07 08:01 32.00079 149.95186 31176 ft 525 kts 91°
2026-05-07 08:01 32.00000 150.03713 31184 ft 524 kts 89°
2026-05-07 08:02 32.00188 150.12306 31178 ft 525 kts 88°
2026-05-07 08:02 32.00366 150.20871 31179 ft 526 kts 89°
2026-05-07 08:03 32.00529 150.29451 31180 ft 525 kts 89°
2026-05-07 08:03 32.00682 150.38068 31182 ft 525 kts 88°
2026-05-07 08:04 32.00825 150.46652 31183 ft 526 kts 88°
2026-05-07 08:04 32.00961 150.55217 31184 ft 526 kts 89°
2026-05-07 08:05 32.01091 150.63789 31183 ft 525 kts 89°
2026-05-07 08:05 32.01215 150.72441 31178 ft 526 kts 89°
2026-05-07 08:06 32.01332 150.81049 31178 ft 525 kts 89°
2026-05-07 08:06 32.01443 150.89648 31177 ft 525 kts 89°
2026-05-07 08:07 32.01548 150.98189 31179 ft 525 kts 89°
2026-05-07 08:07 32.01648 151.06838 31178 ft 526 kts 89°
2026-05-07 08:08 32.01742 151.15422 31183 ft 525 kts 89°
2026-05-07 08:08 32.01830 151.24022 31186 ft 526 kts 89°
2026-05-07 08:09 32.01911 151.32579 31186 ft 526 kts 89°
2026-05-07 08:09 32.01988 151.41203 31191 ft 525 kts 88°
2026-05-07 08:10 32.02058 151.49814 31192 ft 526 kts 89°
2026-05-07 08:10 32.02123 151.58426 31195 ft 526 kts 89°
2026-05-07 08:11 32.02182 151.67068 31192 ft 526 kts 89°
2026-05-07 08:11 32.02236 151.75676 31193 ft 527 kts 89°
2026-05-07 08:12 32.02283 151.84279 31193 ft 526 kts 89°
2026-05-07 08:12 32.02324 151.92876 31195 ft 526 kts 89°
2026-05-07 08:13 32.02360 152.01491 31196 ft 525 kts 89°
2026-05-07 08:13 32.02390 152.10060 31198 ft 524 kts 89°
2026-05-07 08:14 32.02414 152.18668 31198 ft 526 kts 89°
2026-05-07 08:14 32.02432 152.27231 31200 ft 527 kts 89°
2026-05-07 08:15 32.02445 152.35867 31201 ft 526 kts 89°
2026-05-07 08:15 32.02451 152.44429 31201 ft 527 kts 89°
2026-05-07 08:16 32.02452 152.53032 31203 ft 526 kts 89°
2026-05-07 08:16 32.02447 152.61653 31204 ft 526 kts 89°
2026-05-07 08:17 32.02436 152.70222 31195 ft 526 kts 89°
2026-05-07 08:17 32.02420 152.78822 31196 ft 525 kts 89°
2026-05-07 08:18 32.02398 152.87427 31196 ft 526 kts 89°
2026-05-07 08:18 32.02369 152.96019 31197 ft 525 kts 89°
2026-05-07 08:19 32.02335 153.04585 31198 ft 524 kts 89°
2026-05-07 08:19 32.02296 153.13155 31199 ft 526 kts 89°
2026-05-07 08:20 32.02250 153.21727 31207 ft 525 kts 89°
2026-05-07 08:20 32.02199 153.30331 31206 ft 525 kts 89°
2026-05-07 08:21 32.02142 153.38968 31207 ft 525 kts 89°
2026-05-07 08:21 32.02079 153.47525 31209 ft 527 kts 89°
2026-05-07 08:22 32.02010 153.56158 31212 ft 527 kts 89°
2026-05-07 08:22 32.01936 153.64760 31214 ft 527 kts 89°
2026-05-07 08:23 32.01855 153.73337 31208 ft 528 kts 89°
2026-05-07 08:23 32.01769 153.81996 31211 ft 528 kts 89°
2026-05-07 08:24 32.01677 153.90596 31216 ft 528 kts 89°
2026-05-07 08:24 32.01579 153.99239 31216 ft 528 kts 89°
2026-05-07 08:25 32.01475 154.07834 31218 ft 528 kts 89°
2026-05-07 08:25 32.01365 154.16476 31220 ft 527 kts 89°
2026-05-07 08:26 32.01191 154.29338 31220 ft 527 kts 90°
2026-05-07 08:26 32.01066 154.37958 31222 ft 526 kts 90°
2026-05-07 08:27 32.00937 154.46559 31223 ft 527 kts 90°
2026-05-07 08:27 32.00801 154.55162 31224 ft 526 kts 90°
2026-05-07 08:28 32.00659 154.63797 31223 ft 527 kts 90°
2026-05-07 08:28 32.00512 154.72374 31217 ft 527 kts 90°
2026-05-07 08:29 32.00359 154.81015 31227 ft 527 kts 90°
2026-05-07 08:29 32.00200 154.89612 31234 ft 526 kts 90°
2026-05-07 08:30 32.00036 154.98160 31238 ft 525 kts 90°
2026-05-07 08:30 32.00058 155.06802 31241 ft 525 kts 87°
2026-05-07 08:31 32.00250 155.15375 31239 ft 525 kts 87°
2026-05-07 08:31 32.00425 155.23972 31242 ft 524 kts 88°
2026-05-07 08:32 32.00583 155.32500 31242 ft 524 kts 87°
2026-05-07 08:32 32.00732 155.41071 31243 ft 523 kts 87°
2026-05-07 08:33 32.00874 155.49660 31242 ft 525 kts 87°
2026-05-07 08:33 32.01008 155.58234 31246 ft 524 kts 87°
2026-05-07 08:34 32.01135 155.66850 31240 ft 525 kts 88°
2026-05-07 08:34 32.01256 155.75403 31235 ft 526 kts 88°
2026-05-07 08:35 32.01371 155.84012 31240 ft 524 kts 88°
2026-05-07 08:35 32.01480 155.92572 31238 ft 524 kts 88°
2026-05-07 08:36 32.01583 156.01137 31239 ft 524 kts 88°
2026-05-07 08:36 32.01681 156.09763 31244 ft 525 kts 88°
2026-05-07 08:37 32.01772 156.18304 31242 ft 525 kts 88°
2026-05-07 08:37 32.01858 156.26888 31247 ft 524 kts 88°
2026-05-07 08:38 32.01938 156.35513 31248 ft 524 kts 88°
2026-05-07 08:38 32.02012 156.44086 31252 ft 524 kts 88°
2026-05-07 08:39 32.02081 156.52673 31255 ft 524 kts 88°
2026-05-07 08:39 32.02143 156.61189 31256 ft 524 kts 88°
2026-05-07 08:40 32.02200 156.69803 31249 ft 524 kts 88°
2026-05-07 08:40 32.02251 156.78326 31251 ft 524 kts 88°
2026-05-07 08:41 32.02296 156.86858 31255 ft 523 kts 89°
2026-05-07 08:41 32.02336 156.95441 31257 ft 525 kts 88°
2026-05-07 08:42 32.02369 157.04033 31258 ft 523 kts 88°
2026-05-07 08:42 32.02397 157.12547 31261 ft 523 kts 88°
2026-05-07 08:43 32.02420 157.21117 31262 ft 525 kts 88°
2026-05-07 08:43 32.02436 157.29746 31262 ft 525 kts 88°
2026-05-07 08:44 32.02447 157.38309 31262 ft 526 kts 88°
2026-05-07 08:44 32.02452 157.46901 31265 ft 524 kts 88°
2026-05-07 08:45 32.02451 157.55541 31266 ft 525 kts 88°
2026-05-07 08:45 32.02445 157.64093 31266 ft 526 kts 88°
2026-05-07 08:46 32.02432 157.72675 31257 ft 525 kts 89°
2026-05-07 08:46 32.02414 157.81297 31257 ft 526 kts 89°
2026-05-07 08:47 32.02390 157.89932 31257 ft 526 kts 89°
2026-05-07 08:47 32.02360 157.98566 31255 ft 526 kts 89°
2026-05-07 08:48 32.02324 158.07164 31251 ft 524 kts 89°
2026-05-07 08:48 32.02282 158.15788 31246 ft 525 kts 89°
2026-05-07 08:49 32.02235 158.24379 31249 ft 527 kts 89°
2026-05-07 08:49 32.02182 158.33005 31248 ft 528 kts 89°
2026-05-07 08:50 32.02123 158.41594 31252 ft 528 kts 89°
2026-05-07 08:50 32.02058 158.50195 31254 ft 527 kts 89°
2026-05-07 08:51 32.01988 158.58813 31257 ft 528 kts 89°
2026-05-07 08:51 32.01911 158.67468 31250 ft 526 kts 89°
2026-05-07 08:52 32.01828 158.76099 31251 ft 527 kts 89°
2026-05-07 08:52 32.01740 158.84706 31255 ft 527 kts 89°
2026-05-07 08:53 32.01646 158.93355 31257 ft 526 kts 89°
2026-05-07 08:53 32.01546 159.01939 31260 ft 526 kts 89°
2026-05-07 08:54 32.01440 159.10596 31259 ft 527 kts 89°
2026-05-07 08:54 32.01329 159.19220 31261 ft 528 kts 89°
2026-05-07 08:55 32.01212 159.27853 31261 ft 528 kts 89°
2026-05-07 08:55 32.01088 159.36444 31263 ft 527 kts 89°
2026-05-07 08:56 32.00959 159.45106 31264 ft 528 kts 89°
2026-05-07 08:56 32.00824 159.53744 31267 ft 528 kts 89°
2026-05-07 08:57 32.00682 159.62396 31274 ft 528 kts 89°
2026-05-07 08:57 32.00534 159.71085 31272 ft 528 kts 90°
2026-05-07 08:58 32.00381 159.79771 31273 ft 528 kts 90°
2026-05-07 08:58 32.00222 159.88402 31276 ft 528 kts 90°
2026-05-07 08:59 32.00058 159.97044 31277 ft 529 kts 90°
2026-05-07 08:59 32.00682 160.05611 31284 ft 525 kts 78°
2026-05-07 09:00 32.01915 160.14107 31277 ft 526 kts 78°
2026-05-07 09:00 32.03125 160.22588 31281 ft 525 kts 78°
2026-05-07 09:01 32.04325 160.31117 31283 ft 526 kts 78°
2026-05-07 09:01 32.05508 160.39619 31285 ft 528 kts 78°
2026-05-07 09:02 32.06684 160.48151 31285 ft 527 kts 78°
2026-05-07 09:02 32.07853 160.56685 31287 ft 528 kts 78°
2026-05-07 09:03 32.09019 160.65250 31296 ft 528 kts 79°
2026-05-07 09:03 32.10175 160.73796 31293 ft 528 kts 79°
2026-05-07 09:04 32.11334 160.82411 31295 ft 530 kts 79°
2026-05-07 09:04 32.12478 160.90962 31297 ft 529 kts 79°
2026-05-07 09:05 32.13625 160.99582 31299 ft 529 kts 79°
2026-05-07 09:05 32.14761 161.08157 31299 ft 531 kts 79°
2026-05-07 09:06 32.15892 161.16751 31302 ft 529 kts 79°
2026-05-07 09:06 32.17019 161.25357 31298 ft 529 kts 79°
2026-05-07 09:07 32.18131 161.33899 31294 ft 527 kts 79°
2026-05-07 09:07 32.19234 161.42410 31294 ft 527 kts 79°
2026-05-07 09:08 32.20333 161.50943 31293 ft 527 kts 79°
2026-05-07 09:08 32.21428 161.59486 31294 ft 528 kts 79°
2026-05-07 09:09 32.22522 161.68071 31281 ft 527 kts 79°
2026-05-07 09:09 32.23600 161.76575 31280 ft 528 kts 79°
2026-05-07 09:10 32.24680 161.85146 31280 ft 529 kts 79°
2026-05-07 09:10 32.25751 161.93698 31282 ft 528 kts 79°
2026-05-07 09:11 32.26824 162.02304 31284 ft 529 kts 79°
2026-05-07 09:11 32.27887 162.10886 31285 ft 528 kts 79°
2026-05-07 09:12 32.28941 162.19440 31292 ft 527 kts 79°
2026-05-07 09:12 32.29991 162.28012 31298 ft 527 kts 79°
2026-05-07 09:13 32.31036 162.36586 31303 ft 527 kts 79°
2026-05-07 09:13 32.32077 162.45189 31307 ft 528 kts 79°
2026-05-07 09:14 32.33115 162.53812 31309 ft 528 kts 79°
2026-05-07 09:14 32.34141 162.62384 31306 ft 528 kts 79°
2026-05-07 09:15 32.35165 162.70993 31299 ft 528 kts 80°
2026-05-07 09:15 32.36176 162.79532 31298 ft 527 kts 80°
2026-05-07 09:16 32.37187 162.88136 31300 ft 530 kts 80°
2026-05-07 09:16 32.38198 162.96785 31302 ft 529 kts 80°
2026-05-07 09:17 32.39199 163.05402 31305 ft 530 kts 80°
2026-05-07 09:17 32.40203 163.14099 31305 ft 528 kts 80°
2026-05-07 09:18 32.41191 163.22716 31306 ft 528 kts 80°
2026-05-07 09:18 32.42169 163.31288 31306 ft 527 kts 80°
2026-05-07 09:19 32.43145 163.39900 31307 ft 528 kts 80°
2026-05-07 09:19 32.44110 163.48469 31308 ft 528 kts 80°
2026-05-07 09:20 32.45073 163.57071 31308 ft 527 kts 80°
2026-05-07 09:20 32.46032 163.65692 31307 ft 526 kts 81°
2026-05-07 09:21 32.46981 163.74287 31300 ft 527 kts 81°
2026-05-07 09:21 32.47926 163.82887 31301 ft 528 kts 81°
2026-05-07 09:22 32.48866 163.91509 31301 ft 528 kts 81°
2026-05-07 09:22 32.49802 164.00140 31302 ft 529 kts 81°
2026-05-07 09:23 32.50731 164.08769 31303 ft 529 kts 81°
2026-05-07 09:23 32.51650 164.17357 31304 ft 527 kts 81°
2026-05-07 09:24 32.52564 164.25954 31304 ft 527 kts 81°
2026-05-07 09:24 32.53478 164.34611 31307 ft 527 kts 81°
2026-05-07 09:25 32.54379 164.43195 31503 ft 534 kts 81°
2026-05-07 09:25 32.54832 164.47543 32191 ft 529 kts 81°
2026-05-07 09:25 32.55277 164.51825 32991 ft 523 kts 81°
2026-05-07 09:26 32.55723 164.56123 33294 ft 525 kts 81°
2026-05-07 09:26 32.56168 164.60429 33309 ft 524 kts 81°
2026-05-07 09:26 32.57046 164.68976 33300 ft 522 kts 82°
2026-05-07 09:27 32.57919 164.77522 33302 ft 524 kts 81°
2026-05-07 09:28 32.59223 164.90407 33302 ft 523 kts 82°
2026-05-07 09:28 32.60078 164.98924 33302 ft 523 kts 81°
2026-05-07 09:29 32.60932 165.07498 33303 ft 522 kts 82°
2026-05-07 09:29 32.61777 165.16037 33308 ft 523 kts 82°
2026-05-07 09:30 32.62620 165.24615 33305 ft 523 kts 81°
2026-05-07 09:30 32.63453 165.33154 33310 ft 523 kts 82°
2026-05-07 09:31 32.64278 165.41681 33311 ft 522 kts 82°
2026-05-07 09:31 32.65103 165.50253 33315 ft 523 kts 81°
2026-05-07 09:32 32.65918 165.58789 33316 ft 523 kts 82°
2026-05-07 09:32 32.66730 165.67355 33314 ft 523 kts 82°
2026-05-07 09:33 32.67539 165.75958 33316 ft 523 kts 82°
2026-05-07 09:33 32.68336 165.84495 33318 ft 522 kts 82°
2026-05-07 09:34 32.69129 165.93047 33320 ft 522 kts 82°
2026-05-07 09:34 32.69920 166.01653 33322 ft 523 kts 82°
2026-05-07 09:35 32.70701 166.10207 33323 ft 522 kts 82°
2026-05-07 09:35 32.71479 166.18787 33324 ft 524 kts 82°
2026-05-07 09:36 32.72252 166.27388 33325 ft 523 kts 82°
2026-05-07 09:36 32.73021 166.36014 33327 ft 525 kts 82°
2026-05-07 09:37 32.73783 166.44623 33327 ft 525 kts 82°
2026-05-07 09:37 32.74535 166.53189 33326 ft 523 kts 82°
2026-05-07 09:38 32.75285 166.61801 33328 ft 525 kts 82°
2026-05-07 09:38 32.76025 166.70364 33320 ft 524 kts 82°
2026-05-07 09:39 32.76765 166.78996 33317 ft 525 kts 82°
2026-05-07 09:39 32.77494 166.87570 33318 ft 526 kts 82°
2026-05-07 09:40 32.78224 166.96227 33321 ft 525 kts 82°
2026-05-07 09:40 32.78947 167.04880 33324 ft 524 kts 82°
2026-05-07 09:41 32.79660 167.13478 33323 ft 525 kts 82°
2026-05-07 09:41 32.80368 167.22087 33324 ft 522 kts 82°
2026-05-07 09:42 32.81070 167.30688 33324 ft 525 kts 82°
2026-05-07 09:42 32.81764 167.39282 33327 ft 525 kts 82°
2026-05-07 09:43 32.82455 167.47910 33326 ft 524 kts 82°
2026-05-07 09:43 32.83142 167.56552 33328 ft 524 kts 82°
2026-05-07 09:44 32.83818 167.65150 33330 ft 523 kts 83°
2026-05-07 09:44 32.84494 167.73798 33319 ft 523 kts 83°
2026-05-07 09:45 32.85158 167.82391 33319 ft 523 kts 83°
2026-05-07 09:45 32.85818 167.91005 33321 ft 523 kts 82°
2026-05-07 09:46 32.86472 167.99608 33323 ft 523 kts 82°
2026-05-07 09:46 32.87123 168.08266 33325 ft 524 kts 83°
2026-05-07 09:47 32.87762 168.16836 33328 ft 524 kts 82°
2026-05-07 09:47 32.88401 168.25484 33330 ft 525 kts 82°
2026-05-07 09:48 32.89039 168.34204 33340 ft 526 kts 83°
2026-05-07 09:48 32.89663 168.42819 33346 ft 525 kts 82°
2026-05-07 09:49 32.90285 168.51483 33348 ft 528 kts 83°
2026-05-07 09:49 32.90900 168.60143 33348 ft 527 kts 83°
2026-05-07 09:50 32.91513 168.68846 33333 ft 528 kts 83°
2026-05-07 09:50 32.92118 168.77536 33337 ft 529 kts 84°
2026-05-07 09:51 32.92719 168.86255 33337 ft 528 kts 84°
2026-05-07 09:51 32.93313 168.94957 33338 ft 528 kts 83°
2026-05-07 09:52 32.93898 169.03624 33344 ft 530 kts 84°
2026-05-07 09:52 32.94483 169.12378 33344 ft 531 kts 83°
2026-05-07 09:53 32.95063 169.21152 33345 ft 529 kts 84°
2026-05-07 09:53 32.95636 169.29897 33350 ft 530 kts 83°
2026-05-07 09:54 32.96198 169.38576 33350 ft 530 kts 83°
2026-05-07 09:54 32.96759 169.47342 33350 ft 529 kts 83°
2026-05-07 09:55 32.97313 169.56093 33349 ft 528 kts 83°
2026-05-07 09:55 32.97859 169.64818 33354 ft 530 kts 83°
2026-05-07 09:56 32.98401 169.73560 33339 ft 529 kts 84°
2026-05-07 09:56 32.98936 169.82314 33341 ft 529 kts 84°
2026-05-07 09:57 32.99466 169.91069 33339 ft 530 kts 84°
2026-05-07 09:57 32.99973 169.99834 33337 ft 528 kts 84°
2026-05-07 09:58 33.00332 170.08533 33354 ft 529 kts 85°
2026-05-07 09:58 33.00674 170.17265 33362 ft 526 kts 85°
2026-05-07 09:59 33.01010 170.26010 33365 ft 527 kts 85°
2026-05-07 09:59 33.01337 170.34701 33366 ft 526 kts 85°
2026-05-07 10:00 33.01661 170.43477 33366 ft 526 kts 85°
2026-05-07 10:00 33.01975 170.52144 33366 ft 526 kts 85°
2026-05-07 10:01 33.02284 170.60858 33365 ft 527 kts 85°
2026-05-07 10:01 33.02587 170.69594 33351 ft 527 kts 85°
2026-05-07 10:02 33.02883 170.78293 33353 ft 527 kts 85°
2026-05-07 10:02 33.03174 170.87012 33355 ft 525 kts 85°
2026-05-07 10:03 33.03460 170.95783 33360 ft 526 kts 85°
2026-05-07 10:03 33.03738 171.04457 33359 ft 526 kts 85°
2026-05-07 10:04 33.04008 171.13104 33361 ft 524 kts 85°
2026-05-07 10:04 33.04274 171.21829 33359 ft 525 kts 85°
2026-05-07 10:05 33.04536 171.30585 33357 ft 526 kts 85°
2026-05-07 10:05 33.04788 171.39235 33352 ft 525 kts 85°
2026-05-07 10:06 33.05036 171.47943 33352 ft 525 kts 85°
2026-05-07 10:06 33.05278 171.56665 33354 ft 524 kts 85°
2026-05-07 10:07 33.05513 171.65346 33352 ft 525 kts 85°
2026-05-07 10:07 33.05742 171.74011 33338 ft 524 kts 85°
2026-05-07 10:08 33.05965 171.82684 33339 ft 524 kts 85°
2026-05-07 10:08 33.06181 171.91328 33343 ft 525 kts 85°
2026-05-07 10:09 33.06393 172.00050 33343 ft 522 kts 85°
2026-05-07 10:09 33.06596 172.08673 33346 ft 523 kts 85°
2026-05-07 10:10 33.06795 172.17358 33347 ft 522 kts 85°
2026-05-07 10:10 33.06988 172.25995 33346 ft 524 kts 85°
2026-05-07 10:11 33.07173 172.34637 33362 ft 521 kts 85°
2026-05-07 10:11 33.07355 172.43308 33367 ft 523 kts 85°
2026-05-07 10:12 33.07529 172.51970 33364 ft 524 kts 85°
2026-05-07 10:12 33.07698 172.60617 33364 ft 524 kts 85°
2026-05-07 10:13 33.07861 172.69307 33356 ft 524 kts 86°
2026-05-07 10:13 33.08017 172.77963 33362 ft 524 kts 86°
2026-05-07 10:14 33.08168 172.86612 33358 ft 523 kts 86°
2026-05-07 10:14 33.08313 172.95297 33360 ft 524 kts 86°
2026-05-07 10:15 33.08451 173.03937 33362 ft 526 kts 86°
2026-05-07 10:15 33.08584 173.12628 33358 ft 523 kts 85°
2026-05-07 10:16 33.08711 173.21310 33359 ft 526 kts 85°
2026-05-07 10:16 33.08833 173.30037 33359 ft 529 kts 86°
2026-05-07 10:17 33.08947 173.38779 33359 ft 523 kts 85°
2026-05-07 10:17 33.09056 173.47440 33361 ft 525 kts 85°
2026-05-07 10:18 33.09160 173.56160 33365 ft 529 kts 85°
2026-05-07 10:18 33.09257 173.64902 33363 ft 529 kts 86°
2026-05-07 10:19 33.09348 173.73630 33353 ft 526 kts 86°
2026-05-07 10:19 33.09434 173.82423 33360 ft 531 kts 86°
2026-05-07 10:20 33.09513 173.91168 33357 ft 530 kts 86°
2026-05-07 10:20 33.09586 173.99872 33366 ft 529 kts 86°
2026-05-07 10:21 33.09652 174.08632 33370 ft 528 kts 86°
2026-05-07 10:21 33.09713 174.17423 33382 ft 529 kts 86°
2026-05-07 10:22 33.09768 174.26131 33384 ft 528 kts 86°
2026-05-07 10:22 33.09817 174.34915 33382 ft 530 kts 86°
2026-05-07 10:23 33.09859 174.43689 33374 ft 530 kts 86°
2026-05-07 10:23 33.09895 174.52403 33372 ft 530 kts 86°
2026-05-07 10:24 33.09925 174.61220 33374 ft 530 kts 86°
2026-05-07 10:24 33.09950 174.70003 33360 ft 530 kts 86°
2026-05-07 10:25 33.09967 174.78827 33358 ft 528 kts 87°
2026-05-07 10:25 33.09980 174.87619 33361 ft 531 kts 86°
2026-05-07 10:26 33.09985 174.96393 33362 ft 531 kts 86°
2026-05-07 10:26 33.09985 175.05191 33361 ft 532 kts 86°
2026-05-07 10:27 33.09978 175.13915 33362 ft 530 kts 86°
2026-05-07 10:27 33.09965 175.22681 33362 ft 530 kts 86°
2026-05-07 10:28 33.09946 175.31491 33363 ft 533 kts 86°
2026-05-07 10:28 33.09920 175.40315 33361 ft 530 kts 86°
2026-05-07 10:29 33.09889 175.49083 33363 ft 529 kts 87°
2026-05-07 10:29 33.09852 175.57817 33367 ft 530 kts 86°
2026-05-07 10:30 33.09784 175.70984 33354 ft 529 kts 87°
2026-05-07 10:30 33.09732 175.79793 33356 ft 529 kts 87°
2026-05-07 10:31 33.09672 175.88600 33358 ft 531 kts 87°
2026-05-07 10:31 33.09607 175.97376 33361 ft 530 kts 87°
2026-05-07 10:32 33.09536 176.06172 33362 ft 533 kts 87°
2026-05-07 10:32 33.09457 176.15019 33354 ft 532 kts 87°
2026-05-07 10:33 33.09374 176.23791 33348 ft 531 kts 87°
2026-05-07 10:33 33.09284 176.32556 33348 ft 532 kts 87°
2026-05-07 10:34 33.09188 176.41370 33348 ft 532 kts 86°
2026-05-07 10:34 33.09085 176.50142 33347 ft 530 kts 87°
2026-05-07 10:35 33.08977 176.58925 33347 ft 530 kts 87°
2026-05-07 10:35 33.08862 176.67773 33337 ft 532 kts 87°
2026-05-07 10:36 33.08740 176.76604 33338 ft 529 kts 87°
2026-05-07 10:36 33.08614 176.85345 33341 ft 531 kts 87°
2026-05-07 10:37 33.08481 176.94124 33342 ft 529 kts 88°
2026-05-07 10:37 33.08342 177.02902 33343 ft 530 kts 87°
2026-05-07 10:38 33.08197 177.11688 33340 ft 531 kts 88°
2026-05-07 10:38 33.08043 177.20549 33346 ft 529 kts 88°
2026-05-07 10:39 33.07887 177.29274 33356 ft 531 kts 87°
2026-05-07 10:39 33.07722 177.38139 33357 ft 533 kts 87°
2026-05-07 10:40 33.07551 177.46919 33357 ft 531 kts 87°
2026-05-07 10:40 33.07375 177.55747 33354 ft 532 kts 88°
2026-05-07 10:41 33.07191 177.64537 33354 ft 533 kts 88°
2026-05-07 10:41 33.07002 177.73381 33341 ft 532 kts 88°
2026-05-07 10:42 33.06806 177.82196 33339 ft 533 kts 88°
2026-05-07 10:42 33.06605 177.90973 33342 ft 534 kts 88°
2026-05-07 10:43 33.06395 177.99866 33341 ft 534 kts 88°
2026-05-07 10:43 33.06179 178.08752 33348 ft 535 kts 88°
2026-05-07 10:44 33.05958 178.17600 33360 ft 536 kts 88°
2026-05-07 10:44 33.05730 178.26445 33354 ft 535 kts 88°
2026-05-07 10:45 33.05495 178.35352 33356 ft 538 kts 88°
2026-05-07 10:45 33.05255 178.44189 33349 ft 536 kts 88°
2026-05-07 10:46 33.05006 178.53130 33361 ft 540 kts 88°
2026-05-07 10:46 33.04753 178.62004 33357 ft 538 kts 88°
2026-05-07 10:47 33.04490 178.70978 33342 ft 539 kts 88°
2026-05-07 10:47 33.04223 178.79886 33346 ft 540 kts 89°
2026-05-07 10:48 33.03950 178.88777 33347 ft 541 kts 89°
2026-05-07 10:48 33.03669 178.97708 33338 ft 541 kts 89°
2026-05-07 10:49 33.03382 179.06651 33340 ft 541 kts 89°
2026-05-07 10:49 33.03086 179.15659 33341 ft 543 kts 89°
2026-05-07 10:50 33.02786 179.24585 33344 ft 541 kts 88°
2026-05-07 10:50 33.02477 179.33603 33344 ft 544 kts 88°
2026-05-07 10:51 33.02164 179.42529 33347 ft 542 kts 88°
2026-05-07 10:51 33.01843 179.51504 33346 ft 541 kts 88°
2026-05-07 10:52 33.01518 179.60452 33348 ft 543 kts 88°
2026-05-07 10:52 33.01186 179.69373 33334 ft 540 kts 89°
2026-05-07 10:53 33.00848 179.78319 33336 ft 543 kts 88°
2026-05-07 10:53 33.00502 179.87280 33335 ft 542 kts 89°
2026-05-07 10:54 33.00147 179.96265 33334 ft 542 kts 89°
2026-05-07 10:54 32.99083 -179.94838 33338 ft 547 kts 97°
2026-05-07 10:55 32.97735 -179.85982 33341 ft 547 kts 96°
2026-05-07 10:55 32.96356 -179.77100 33341 ft 547 kts 97°
2026-05-07 10:56 32.94955 -179.68196 33335 ft 548 kts 97°
2026-05-07 10:56 32.93549 -179.59352 33332 ft 544 kts 97°
2026-05-07 10:57 32.92134 -179.50501 33323 ft 547 kts 97°
2026-05-07 10:57 32.90709 -179.41653 33312 ft 545 kts 98°
2026-05-07 10:58 32.89272 -179.32773 33310 ft 545 kts 97°
2026-05-07 10:58 32.87838 -179.23961 33312 ft 547 kts 98°
2026-05-07 10:59 32.86382 -179.15051 33313 ft 548 kts 98°
2026-05-07 10:59 32.84926 -179.06194 33316 ft 546 kts 97°
2026-05-07 11:00 32.83451 -178.97253 33319 ft 549 kts 97°
2026-05-07 11:00 32.81982 -178.88400 33316 ft 547 kts 98°
2026-05-07 11:01 32.80515 -178.79593 33317 ft 547 kts 98°
2026-05-07 11:01 32.79033 -178.70738 33321 ft 547 kts 97°
2026-05-07 11:02 32.77543 -178.61876 33320 ft 547 kts 97°
2026-05-07 11:02 32.76048 -178.53024 33327 ft 547 kts 98°
2026-05-07 11:03 32.74551 -178.44192 33309 ft 547 kts 98°
2026-05-07 11:03 32.73045 -178.35356 33311 ft 547 kts 98°
2026-05-07 11:04 32.71540 -178.26564 33313 ft 545 kts 98°
2026-05-07 11:04 32.70020 -178.17717 33316 ft 548 kts 98°
2026-05-07 11:05 32.68492 -178.08872 33315 ft 546 kts 98°
2026-05-07 11:05 32.66975 -178.00124 33314 ft 547 kts 98°
2026-05-07 11:06 32.65419 -177.91190 33313 ft 548 kts 98°
2026-05-07 11:06 32.63871 -177.82344 33312 ft 549 kts 98°
2026-05-07 11:07 32.62326 -177.73555 33310 ft 547 kts 98°
2026-05-07 11:07 32.60770 -177.64735 33309 ft 547 kts 99°
2026-05-07 11:08 32.59192 -177.55826 33313 ft 550 kts 99°
2026-05-07 11:08 32.57624 -177.47018 33314 ft 549 kts 99°
2026-05-07 11:09 32.56043 -177.38176 33311 ft 549 kts 99°
2026-05-07 11:09 32.54454 -177.29324 33293 ft 549 kts 100°
2026-05-07 11:10 32.52867 -177.20522 33290 ft 550 kts 100°
2026-05-07 11:10 32.51264 -177.11670 33293 ft 548 kts 100°
2026-05-07 11:11 32.49663 -177.02866 33303 ft 549 kts 101°
2026-05-07 11:11 32.48055 -176.94057 33301 ft 548 kts 100°
2026-05-07 11:12 32.46439 -176.85239 33304 ft 551 kts 101°
2026-05-07 11:12 32.44816 -176.76427 33304 ft 546 kts 101°
2026-05-07 11:13 32.43185 -176.67603 33304 ft 551 kts 101°
2026-05-07 11:13 32.41555 -176.58824 33308 ft 550 kts 101°
2026-05-07 11:14 32.39898 -176.49930 33303 ft 549 kts 101°
2026-05-07 11:14 32.38242 -176.41083 33306 ft 550 kts 101°
2026-05-07 11:15 32.36587 -176.32277 33293 ft 553 kts 102°
2026-05-07 11:15 32.34925 -176.23468 33289 ft 549 kts 102°
2026-05-07 11:16 32.33255 -176.14655 33287 ft 550 kts 102°
2026-05-07 11:16 32.31579 -176.05846 33289 ft 550 kts 102°
2026-05-07 11:17 32.29908 -175.97095 33292 ft 550 kts 102°
2026-05-07 11:17 32.28212 -175.88248 33289 ft 550 kts 102°
2026-05-07 11:18 32.26521 -175.79466 33291 ft 548 kts 102°
2026-05-07 11:18 32.24827 -175.70702 33285 ft 549 kts 102°
2026-05-07 11:19 32.23119 -175.61900 33287 ft 548 kts 102°
2026-05-07 11:19 32.21410 -175.53128 33291 ft 547 kts 102°
2026-05-07 11:20 32.19702 -175.44395 33299 ft 550 kts 102°
2026-05-07 11:20 32.17979 -175.35622 33285 ft 545 kts 102°
2026-05-07 11:21 32.16253 -175.26862 33273 ft 548 kts 102°
2026-05-07 11:21 32.14525 -175.18123 33268 ft 548 kts 103°
2026-05-07 11:22 32.12793 -175.09405 33265 ft 545 kts 102°
2026-05-07 11:22 32.11058 -175.00705 33269 ft 546 kts 102°
2026-05-07 11:23 32.09314 -174.91992 33262 ft 544 kts 102°
2026-05-07 11:23 32.07569 -174.83305 33266 ft 545 kts 102°
2026-05-07 11:24 32.05816 -174.74611 33266 ft 550 kts 102°
2026-05-07 11:24 32.04047 -174.65874 33271 ft 545 kts 102°
2026-05-07 11:25 32.02276 -174.57155 33271 ft 548 kts 103°
2026-05-07 11:25 32.00509 -174.48489 33272 ft 545 kts 103°
2026-05-07 11:26 31.98725 -174.39777 33280 ft 547 kts 103°
2026-05-07 11:26 31.96944 -174.31110 33263 ft 543 kts 103°
2026-05-07 11:27 31.95146 -174.22388 33263 ft 546 kts 104°
2026-05-07 11:27 31.93356 -174.13741 33263 ft 545 kts 104°
2026-05-07 11:28 31.91556 -174.05077 33263 ft 546 kts 104°
2026-05-07 11:28 31.89755 -173.96442 33261 ft 544 kts 104°
2026-05-07 11:29 31.87942 -173.87778 33258 ft 547 kts 104°
2026-05-07 11:29 31.86116 -173.79082 33254 ft 546 kts 104°
2026-05-07 11:30 31.84298 -173.70456 33261 ft 547 kts 104°
2026-05-07 11:30 31.82445 -173.61699 33264 ft 550 kts 104°
2026-05-07 11:31 31.80600 -173.53009 33266 ft 550 kts 104°
2026-05-07 11:31 31.78749 -173.44322 33264 ft 551 kts 104°
2026-05-07 11:32 31.75945 -173.31223 33249 ft 550 kts 105°
2026-05-07 11:33 31.74074 -173.22519 33245 ft 552 kts 105°
2026-05-07 11:33 31.72197 -173.13820 33250 ft 552 kts 105°
2026-05-07 11:34 31.70313 -173.05119 33247 ft 551 kts 105°
2026-05-07 11:34 31.68421 -172.96414 33240 ft 551 kts 105°
2026-05-07 11:35 31.66512 -172.87660 33233 ft 552 kts 105°
2026-05-07 11:35 31.64607 -172.78955 33231 ft 552 kts 105°
2026-05-07 11:36 31.62690 -172.70226 33231 ft 554 kts 106°
2026-05-07 11:36 31.60768 -172.61505 33228 ft 554 kts 106°
2026-05-07 11:37 31.58842 -172.52797 33231 ft 554 kts 106°
2026-05-07 11:37 31.56906 -172.44072 33230 ft 555 kts 106°
2026-05-07 11:38 31.54959 -172.35332 33227 ft 554 kts 106°
2026-05-07 11:38 31.53019 -172.26649 33212 ft 554 kts 107°
2026-05-07 11:39 31.51051 -172.17871 33209 ft 555 kts 107°
2026-05-07 11:39 31.49093 -172.09172 33208 ft 554 kts 107°
2026-05-07 11:40 31.47126 -172.00462 33209 ft 555 kts 107°
2026-05-07 11:40 31.45151 -171.91742 33210 ft 554 kts 107°
2026-05-07 11:41 31.43170 -171.83028 33213 ft 554 kts 107°
2026-05-07 11:41 31.41189 -171.74342 33218 ft 554 kts 107°
2026-05-07 11:42 31.39200 -171.65655 33221 ft 553 kts 107°
2026-05-07 11:42 31.37219 -171.57028 33223 ft 552 kts 107°
2026-05-07 11:43 31.35226 -171.48377 33225 ft 549 kts 107°
2026-05-07 11:43 31.33223 -171.39714 33222 ft 549 kts 107°
2026-05-07 11:44 31.31241 -171.31171 33206 ft 549 kts 107°
2026-05-07 11:44 31.29230 -171.22527 33206 ft 550 kts 107°
2026-05-07 11:45 31.27210 -171.13872 33205 ft 548 kts 108°
2026-05-07 11:45 31.25196 -171.05280 33205 ft 550 kts 108°
2026-05-07 11:46 31.23183 -170.96712 33201 ft 549 kts 108°
2026-05-07 11:46 31.21160 -170.88135 33204 ft 548 kts 108°
2026-05-07 11:47 31.19134 -170.79565 33208 ft 550 kts 108°
2026-05-07 11:47 31.17097 -170.70984 33205 ft 547 kts 108°
2026-05-07 11:48 31.15054 -170.62401 33206 ft 548 kts 108°
2026-05-07 11:48 31.13011 -170.53848 33209 ft 547 kts 108°
2026-05-07 11:49 31.10972 -170.45337 33206 ft 548 kts 108°
2026-05-07 11:49 31.08920 -170.36803 33208 ft 548 kts 108°
2026-05-07 11:50 31.06860 -170.28256 33195 ft 549 kts 108°
2026-05-07 11:50 31.04802 -170.19751 33195 ft 547 kts 108°
2026-05-07 11:51 31.02719 -170.11165 33194 ft 548 kts 108°
2026-05-07 11:51 31.00572 -170.02673 33194 ft 545 kts 113°
2026-05-07 11:52 30.97362 -169.94777 33197 ft 541 kts 121°
2026-05-07 11:52 30.93856 -169.86998 33196 ft 542 kts 122°
2026-05-07 11:53 30.90338 -169.79301 33192 ft 540 kts 122°
2026-05-07 11:53 30.86791 -169.71606 33195 ft 539 kts 122°
2026-05-07 11:54 30.83234 -169.63939 33197 ft 539 kts 122°
2026-05-07 11:54 30.79639 -169.56218 33198 ft 539 kts 122°
2026-05-07 11:55 30.76072 -169.48584 33199 ft 540 kts 122°
2026-05-07 11:55 30.72458 -169.40869 33201 ft 539 kts 122°
2026-05-07 11:56 30.68874 -169.33238 33187 ft 540 kts 123°
2026-05-07 11:56 30.65263 -169.25563 33180 ft 538 kts 122°
2026-05-07 11:57 30.61685 -169.17976 33185 ft 538 kts 123°
2026-05-07 11:57 30.58095 -169.10381 33183 ft 537 kts 122°
2026-05-07 11:58 30.54497 -169.02783 33185 ft 537 kts 123°
2026-05-07 11:58 30.50893 -168.95186 33184 ft 538 kts 123°
2026-05-07 11:59 30.47288 -168.87604 33190 ft 538 kts 123°
2026-05-07 11:59 30.43692 -168.80054 33188 ft 536 kts 122°
2026-05-07 12:00 30.40055 -168.72432 33182 ft 535 kts 122°
2026-05-07 12:00 30.36444 -168.64880 33180 ft 535 kts 122°
2026-05-07 12:01 30.32840 -168.57359 33184 ft 535 kts 122°
2026-05-07 12:01 30.29252 -168.49884 33186 ft 534 kts 122°
2026-05-07 12:02 30.25620 -168.42333 33182 ft 535 kts 122°
2026-05-07 12:02 30.22014 -168.34850 33195 ft 534 kts 123°
2026-05-07 12:03 30.18493 -168.27557 33186 ft 533 kts 123°
2026-05-07 12:03 30.14945 -168.20222 33191 ft 533 kts 123°
2026-05-07 12:04 30.11326 -168.12755 33195 ft 532 kts 123°
2026-05-07 12:04 30.07709 -168.05306 33190 ft 533 kts 123°
2026-05-07 12:05 30.04131 -167.97949 33192 ft 533 kts 123°
2026-05-07 12:05 30.00503 -167.90506 33198 ft 531 kts 123°
2026-05-07 12:06 29.96867 -167.83060 33201 ft 532 kts 123°
2026-05-07 12:06 29.93247 -167.75659 33199 ft 530 kts 123°
2026-05-07 12:07 29.89626 -167.68272 33198 ft 529 kts 123°
2026-05-07 12:07 29.86000 -167.60886 33201 ft 528 kts 123°
2026-05-07 12:08 29.82395 -167.53557 33197 ft 528 kts 123°
2026-05-07 12:08 29.78765 -167.46191 33193 ft 527 kts 123°
2026-05-07 12:09 29.75137 -167.38843 33187 ft 527 kts 123°
2026-05-07 12:09 29.71369 -167.31641 33170 ft 520 kts 131°
2026-05-07 12:10 29.66413 -167.25735 33173 ft 510 kts 147°
2026-05-07 12:10 29.60396 -167.21623 33175 ft 496 kts 163°
2026-05-07 12:11 29.53837 -167.19484 33175 ft 484 kts 178°
2026-05-07 12:11 29.47227 -167.19301 33176 ft 470 kts 192°
2026-05-07 12:12 29.40897 -167.20938 33177 ft 459 kts 206°
2026-05-07 12:12 29.35250 -167.24164 33177 ft 450 kts 218°
2026-05-07 12:13 29.30512 -167.28708 33177 ft 442 kts 231°
2026-05-07 12:13 29.26863 -167.34285 33177 ft 437 kts 243°
2026-05-07 12:14 29.24421 -167.40639 33180 ft 435 kts 255°
2026-05-07 12:14 29.23300 -167.47418 33181 ft 434 kts 266°
2026-05-07 12:15 29.23540 -167.54317 33176 ft 434 kts 278°
2026-05-07 12:15 29.25124 -167.60967 33176 ft 436 kts 290°
2026-05-07 12:16 29.28018 -167.67120 33195 ft 442 kts 301°
2026-05-07 12:16 29.32089 -167.72401 33191 ft 447 kts 314°
2026-05-07 12:17 29.37233 -167.76562 33189 ft 458 kts 326°
2026-05-07 12:17 29.43264 -167.79306 33193 ft 466 kts 338°
2026-05-07 12:18 29.49524 -167.81297 33192 ft 466 kts 338°
2026-05-07 12:18 29.55782 -167.83287 33193 ft 467 kts 338°
2026-05-07 12:19 29.62071 -167.85289 33189 ft 467 kts 338°
2026-05-07 12:19 29.68398 -167.87308 33189 ft 466 kts 338°
2026-05-07 12:20 29.74659 -167.89310 33187 ft 465 kts 338°
2026-05-07 12:20 29.80890 -167.91307 33186 ft 465 kts 338°
2026-05-07 12:21 29.87144 -167.93317 33181 ft 464 kts 338°
2026-05-07 12:21 29.93194 -167.95731 33182 ft 453 kts 328°
2026-05-07 12:22 29.98510 -167.99580 33178 ft 444 kts 315°
2026-05-07 12:22 30.02982 -168.04326 33176 ft 439 kts 308°
2026-05-07 12:23 30.07002 -168.09622 33177 ft 435 kts 304°
2026-05-07 12:23 30.10644 -168.15179 33176 ft 432 kts 301°
2026-05-07 12:24 30.14014 -168.20856 33175 ft 430 kts 299°
2026-05-07 12:24 30.17238 -168.26666 33175 ft 429 kts 297°
2026-05-07 12:25 30.20367 -168.32571 33173 ft 428 kts 297°
2026-05-07 12:25 30.23392 -168.38469 33172 ft 427 kts 296°
2026-05-07 12:26 30.26360 -168.44380 33171 ft 426 kts 296°
2026-05-07 12:26 30.29293 -168.50311 33170 ft 426 kts 296°
2026-05-07 12:27 30.32226 -168.56306 33169 ft 427 kts 295°
2026-05-07 12:27 30.35110 -168.62248 33168 ft 425 kts 295°
2026-05-07 12:28 30.37982 -168.68198 33184 ft 425 kts 295°
2026-05-07 12:28 30.40857 -168.74181 33183 ft 424 kts 295°
2026-05-07 12:29 30.43711 -168.80139 33181 ft 424 kts 295°
2026-05-07 12:29 30.46583 -168.86154 33181 ft 425 kts 295°
2026-05-07 12:30 30.49426 -168.92119 33179 ft 424 kts 295°
2026-05-07 12:30 30.52287 -168.98135 33178 ft 423 kts 295°
2026-05-07 12:31 30.55129 -169.04125 33179 ft 424 kts 295°
2026-05-07 12:31 30.57951 -169.10082 33178 ft 422 kts 295°
2026-05-07 12:32 30.60774 -169.16038 33170 ft 422 kts 296°
2026-05-07 12:32 30.64638 -169.21326 33172 ft 437 kts 315°
2026-05-07 12:33 30.73116 -169.25876 33173 ft 466 kts 342°
2026-05-07 12:33 30.79721 -169.26067 33171 ft 487 kts
2026-05-07 12:34 30.83091 -169.25238 33171 ft 499 kts
2026-05-07 12:34 30.86370 -169.23801 33170 ft 508 kts 18°
2026-05-07 12:34 30.92350 -169.19188 33163 ft 525 kts 37°
2026-05-07 12:35 30.94876 -169.16086 33171 ft 536 kts 46°
2026-05-07 12:35 30.97016 -169.12470 33167 ft 543 kts 56°
2026-05-07 12:35 30.98638 -169.08508 33167 ft 548 kts 67°
2026-05-07 12:35 30.99718 -169.04216 33170 ft 552 kts 77°
2026-05-07 12:36 31.00189 -168.99831 33170 ft 555 kts 88°
2026-05-07 12:36 31.00163 -168.96805 33170 ft 554 kts 95°
2026-05-07 12:36 30.99291 -168.90977 33170 ft 550 kts 109°
2026-05-07 12:36 30.97940 -168.86807 33176 ft 544 kts 120°
2026-05-07 12:37 30.94146 -168.79283 33182 ft 541 kts 127°
2026-05-07 12:37 30.90174 -168.71874 33183 ft 538 kts 126°
2026-05-07 12:38 30.86201 -168.64481 33188 ft 539 kts 126°
2026-05-07 12:38 30.82221 -168.57088 33194 ft 538 kts 126°
2026-05-07 12:39 30.78244 -168.49736 33187 ft 537 kts 128°
2026-05-07 12:39 30.73440 -168.43312 33191 ft 524 kts 142°
2026-05-07 12:40 30.68143 -168.37479 33188 ft 523 kts 142°
2026-05-07 12:40 30.62840 -168.31662 33169 ft 522 kts 143°
2026-05-07 12:41 30.57549 -168.25865 33165 ft 522 kts 143°
2026-05-07 12:41 30.52285 -168.20110 33170 ft 520 kts 142°
2026-05-07 12:42 30.46998 -168.14336 33172 ft 520 kts 142°
2026-05-07 12:42 30.41724 -168.08586 33177 ft 520 kts 142°
2026-05-07 12:43 30.36440 -168.02837 33185 ft 521 kts 142°
2026-05-07 12:43 30.31161 -167.97098 33187 ft 520 kts 142°
2026-05-07 12:44 30.25900 -167.91389 33188 ft 521 kts 142°
2026-05-07 12:44 30.20623 -167.85672 33188 ft 520 kts 142°
2026-05-07 12:45 30.15328 -167.79945 33196 ft 520 kts 142°
2026-05-07 12:45 30.10045 -167.74239 33195 ft 519 kts 142°
2026-05-07 12:46 30.04767 -167.68547 33199 ft 520 kts 142°
2026-05-07 12:46 29.99516 -167.62892 33203 ft 517 kts 142°
2026-05-07 12:47 29.94311 -167.57297 33203 ft 518 kts 142°
2026-05-07 12:47 29.89030 -167.51628 33206 ft 518 kts 142°
2026-05-07 12:48 29.83787 -167.46008 33203 ft 516 kts 142°
2026-05-07 12:48 29.78511 -167.40361 33203 ft 516 kts 142°
2026-05-07 12:49 29.73235 -167.34723 33198 ft 514 kts 142°
2026-05-07 12:49 29.67992 -167.29128 33182 ft 515 kts 142°
2026-05-07 12:50 29.62744 -167.23537 33178 ft 514 kts 142°
2026-05-07 12:50 29.57484 -167.17940 33180 ft 513 kts 142°
2026-05-07 12:51 29.52260 -167.12390 33176 ft 512 kts 142°
2026-05-07 12:51 29.47026 -167.06838 33176 ft 513 kts 142°
2026-05-07 12:52 29.41756 -167.01256 33177 ft 513 kts 142°
2026-05-07 12:52 29.36475 -166.95671 33176 ft 513 kts 142°
2026-05-07 12:53 29.31221 -166.90122 33177 ft 510 kts 142°
2026-05-07 12:53 29.26007 -166.84624 33179 ft 510 kts 142°
2026-05-07 12:54 29.20759 -166.79097 33179 ft 510 kts 141°
2026-05-07 12:54 29.15540 -166.73612 33181 ft 512 kts 141°
2026-05-07 12:55 29.10292 -166.68100 33180 ft 510 kts 141°
2026-05-07 12:55 29.05063 -166.62617 33182 ft 509 kts 141°
2026-05-07 12:56 28.99858 -166.57169 33183 ft 507 kts 141°
2026-05-07 12:56 28.94647 -166.51721 33182 ft 507 kts 141°
2026-05-07 12:57 28.89432 -166.46277 33184 ft 506 kts 141°
2026-05-07 12:57 28.84260 -166.40886 33185 ft 506 kts 141°
2026-05-07 12:58 28.79016 -166.35426 33186 ft 506 kts 141°
2026-05-07 12:58 28.73813 -166.30019 33175 ft 506 kts 141°
2026-05-07 12:59 28.68592 -166.24599 33176 ft 504 kts 142°
2026-05-07 12:59 28.63373 -166.19188 33176 ft 503 kts 141°
2026-05-07 13:00 28.58210 -166.13843 33177 ft 502 kts 141°
2026-05-07 13:00 28.53054 -166.08513 33177 ft 501 kts 142°
2026-05-07 13:01 28.47843 -166.03134 33178 ft 502 kts 141°
2026-05-07 13:01 28.42688 -165.97821 33178 ft 502 kts 141°
2026-05-07 13:02 28.37470 -165.92450 33178 ft 501 kts 141°
2026-05-07 13:02 28.32327 -165.87163 33179 ft 501 kts 141°
2026-05-07 13:03 28.27130 -165.81828 33180 ft 500 kts 141°
2026-05-07 13:03 28.21945 -165.76512 33179 ft 498 kts 141°
2026-05-07 13:04 28.16825 -165.71271 33180 ft 498 kts 141°
2026-05-07 13:04 28.11645 -165.65974 33180 ft 498 kts 141°
2026-05-07 13:05 28.06501 -165.60724 33181 ft 498 kts 141°
2026-05-07 13:05 28.01325 -165.55446 33181 ft 499 kts 141°
2026-05-07 13:06 27.96136 -165.50162 33181 ft 499 kts 141°
2026-05-07 13:06 27.90940 -165.44879 33182 ft 500 kts 141°
2026-05-07 13:07 27.85739 -165.39597 33183 ft 499 kts 141°
2026-05-07 13:07 27.80588 -165.34374 33182 ft 497 kts 141°
2026-05-07 13:08 27.75462 -165.29181 33176 ft 498 kts 141°
2026-05-07 13:08 27.70301 -165.23961 33176 ft 498 kts 141°
2026-05-07 13:09 27.65127 -165.18735 33177 ft 498 kts 141°
2026-05-07 13:09 27.59944 -165.13507 33177 ft 499 kts 141°
2026-05-07 13:10 27.54725 -165.08249 33177 ft 498 kts 141°
2026-05-07 13:10 27.49581 -165.03073 33178 ft 498 kts 141°
2026-05-07 13:11 27.44389 -164.97856 33176 ft 497 kts 141°
2026-05-07 13:11 27.39194 -164.92644 33177 ft 497 kts 141°
2026-05-07 13:12 27.34012 -164.87451 33176 ft 498 kts 141°
2026-05-07 13:12 27.28866 -164.82300 33176 ft 497 kts 141°
2026-05-07 13:13 27.23693 -164.77130 33175 ft 497 kts 141°
2026-05-07 13:13 27.18520 -164.71965 33174 ft 498 kts 141°
2026-05-07 13:14 27.13294 -164.66756 33169 ft 497 kts 140°
2026-05-07 13:14 27.08113 -164.61598 33164 ft 497 kts 140°
2026-05-07 13:15 27.02934 -164.56447 33159 ft 497 kts 140°
2026-05-07 13:15 26.97776 -164.51325 33162 ft 497 kts 140°
2026-05-07 13:16 26.92593 -164.46184 33163 ft 497 kts 140°
2026-05-07 13:16 26.87401 -164.41042 33159 ft 497 kts 140°
2026-05-07 13:17 26.82181 -164.35877 33160 ft 498 kts 140°
2026-05-07 13:17 26.76989 -164.30748 33159 ft 499 kts 141°
2026-05-07 13:18 26.71787 -164.25613 33153 ft 499 kts 141°
2026-05-07 13:18 26.66542 -164.20445 33155 ft 498 kts 141°
2026-05-07 13:19 26.61362 -164.15346 33157 ft 499 kts 141°
2026-05-07 13:19 26.56138 -164.10211 33157 ft 499 kts 141°
2026-05-07 13:20 26.50905 -164.05072 33158 ft 500 kts 141°
2026-05-07 13:20 26.45656 -163.99927 33157 ft 501 kts 141°
2026-05-07 13:21 26.40441 -163.94820 33156 ft 500 kts 141°
2026-05-07 13:21 26.35165 -163.89659 33156 ft 500 kts 141°
2026-05-07 13:22 26.29917 -163.84532 33158 ft 500 kts 141°
2026-05-07 13:22 26.24725 -163.79466 33158 ft 500 kts 141°
2026-05-07 13:23 26.19441 -163.74316 33155 ft 500 kts 141°
2026-05-07 13:23 26.14197 -163.69214 33155 ft 501 kts 141°
2026-05-07 13:24 26.08956 -163.64119 33154 ft 500 kts 141°
2026-05-07 13:24 26.03706 -163.59023 33152 ft 500 kts 141°
2026-05-07 13:25 25.98427 -163.53903 33154 ft 501 kts 141°
2026-05-07 13:25 25.93136 -163.48779 33151 ft 500 kts 141°
2026-05-07 13:26 25.87891 -163.43707 33146 ft 499 kts 141°
2026-05-07 13:26 25.82634 -163.38629 33145 ft 500 kts 141°
2026-05-07 13:27 25.77393 -163.33572 33138 ft 500 kts 141°
2026-05-07 13:27 25.72136 -163.28507 33136 ft 499 kts 141°
2026-05-07 13:28 25.66920 -163.23485 33131 ft 498 kts 141°
2026-05-07 13:28 25.61688 -163.18455 33131 ft 498 kts 141°
2026-05-07 13:29 25.56415 -163.13393 33133 ft 498 kts 141°
2026-05-07 13:29 25.51145 -163.08337 33131 ft 498 kts 141°
2026-05-07 13:30 25.45913 -163.03326 33133 ft 497 kts 141°
2026-05-07 13:30 25.40673 -162.98312 33129 ft 496 kts 141°
2026-05-07 13:31 25.35427 -162.93298 33130 ft 497 kts 141°
2026-05-07 13:31 25.30213 -162.88322 33125 ft 498 kts 141°
2026-05-07 13:32 25.24937 -162.83293 33127 ft 498 kts 141°
2026-05-07 13:32 25.19665 -162.78273 33130 ft 498 kts 141°
2026-05-07 13:33 25.14414 -162.73279 33122 ft 497 kts 141°
2026-05-07 13:33 25.09172 -162.68298 33121 ft 496 kts 141°
2026-05-07 13:34 25.02450 -162.59668 33123 ft 499 kts 123°
2026-05-07 13:35 24.98738 -162.53160 33119 ft 498 kts 123°
2026-05-07 13:35 24.95018 -162.46686 33119 ft 498 kts 123°
2026-05-07 13:36 24.91304 -162.40262 33119 ft 497 kts 123°
2026-05-07 13:36 24.87580 -162.33846 33117 ft 497 kts 124°
2026-05-07 13:37 24.83853 -162.27441 33114 ft 498 kts 124°
2026-05-07 13:37 24.80086 -162.20982 33115 ft 498 kts 124°
2026-05-07 13:38 24.76342 -162.14572 33115 ft 497 kts 124°
2026-05-07 13:38 24.72603 -162.08182 33116 ft 495 kts 124°
2026-05-07 13:39 24.68840 -162.01759 33117 ft 495 kts 124°
2026-05-07 13:39 24.65112 -161.95407 33117 ft 495 kts 124°
2026-05-07 13:40 24.61383 -161.89059 33117 ft 496 kts 124°
2026-05-07 13:40 24.57633 -161.82686 33117 ft 496 kts 124°
2026-05-07 13:41 24.53875 -161.76306 33117 ft 495 kts 123°
2026-05-07 13:41 24.50128 -161.69954 33118 ft 496 kts 124°
2026-05-07 13:42 24.46388 -161.63623 33117 ft 494 kts 124°
2026-05-07 13:42 24.42654 -161.57309 33118 ft 494 kts 124°
2026-05-07 13:43 24.38919 -161.51001 33118 ft 492 kts 124°
2026-05-07 13:43 24.35167 -161.44675 33118 ft 494 kts 124°
2026-05-07 13:44 24.31408 -161.38342 33119 ft 494 kts 124°
2026-05-07 13:44 24.27677 -161.32066 33115 ft 493 kts 124°
2026-05-07 13:45 24.23949 -161.25804 33115 ft 493 kts 124°
2026-05-07 13:45 24.20173 -161.19469 33115 ft 493 kts 124°
2026-05-07 13:46 24.16414 -161.13170 33116 ft 492 kts 124°
2026-05-07 13:46 24.12673 -161.06909 33115 ft 493 kts 124°
2026-05-07 13:47 24.08923 -161.00642 33116 ft 494 kts 124°
2026-05-07 13:47 24.05156 -160.94353 33116 ft 494 kts 124°
2026-05-07 13:48 24.01396 -160.88084 33117 ft 494 kts 124°
2026-05-07 13:48 23.97627 -160.81808 33116 ft 491 kts 124°
2026-05-07 13:49 23.93299 -160.76030 33114 ft 488 kts 140°
2026-05-07 13:49 23.87869 -160.71689 33113 ft 486 kts 147°
2026-05-07 13:50 23.82200 -160.67509 33113 ft 486 kts 147°
2026-05-07 13:50 23.76581 -160.63390 33113 ft 487 kts 147°
2026-05-07 13:51 23.70950 -160.59273 33112 ft 486 kts 147°
2026-05-07 13:51 23.65304 -160.55153 33110 ft 486 kts 147°
2026-05-07 13:52 23.59647 -160.51025 33375 ft 494 kts 147°
2026-05-07 13:52 23.56791 -160.48943 34196 ft 488 kts 147°
2026-05-07 13:52 23.54001 -160.46909 34977 ft 484 kts 147°
2026-05-07 13:52 23.51193 -160.44865 35104 ft 491 kts 147°
2026-05-07 13:53 23.48318 -160.42773 35107 ft 499 kts 147°
2026-05-07 13:53 23.42452 -160.38509 35107 ft 512 kts 147°
2026-05-07 13:54 23.36541 -160.34216 35105 ft 512 kts 147°
2026-05-07 13:54 23.30589 -160.29900 35102 ft 511 kts 147°
2026-05-07 13:55 23.25126 -160.25943 35101 ft 511 kts 147°
2026-05-07 13:56 23.13756 -160.17722 35096 ft 512 kts 147°
2026-05-07 13:56 23.07823 -160.13437 35097 ft 512 kts 147°
2026-05-07 13:57 23.01894 -160.09161 35097 ft 512 kts 147°
2026-05-07 13:57 22.95945 -160.04875 35095 ft 511 kts 147°
2026-05-07 13:58 22.90041 -160.00626 35091 ft 511 kts 147°
2026-05-07 13:58 22.84105 -159.96359 35092 ft 512 kts 147°
2026-05-07 13:59 22.78157 -159.92087 35089 ft 512 kts 147°
2026-05-07 13:59 22.72227 -159.87834 35080 ft 512 kts 147°
2026-05-07 14:00 22.66268 -159.83563 35075 ft 512 kts 147°
2026-05-07 14:00 22.60291 -159.79277 35082 ft 512 kts 147°
2026-05-07 14:01 22.54365 -159.75030 35084 ft 512 kts 147°
2026-05-07 14:01 22.48397 -159.70756 35082 ft 512 kts 147°
2026-05-07 14:02 22.42455 -159.66507 35082 ft 512 kts 147°
2026-05-07 14:02 22.36527 -159.62273 35082 ft 512 kts 147°
2026-05-07 14:03 22.30560 -159.58014 35081 ft 513 kts 147°
2026-05-07 14:03 22.24611 -159.53772 35079 ft 513 kts 148°
2026-05-07 14:04 22.18680 -159.49548 35089 ft 513 kts 148°
2026-05-07 14:04 22.12674 -159.45276 35058 ft 506 kts 147°
2026-05-07 14:04 22.09876 -159.43286 34532 ft 501 kts 148°
2026-05-07 14:05 22.06931 -159.41194 33287 ft 510 kts 148°
2026-05-07 14:05 22.03957 -159.39082 32046 ft 517 kts 147°
2026-05-07 14:05 22.00979 -159.36963 31120 ft 518 kts 146°
2026-05-07 14:05 21.98155 -159.34570 30084 ft 521 kts 138°
2026-05-07 14:06 21.95653 -159.31732 28932 ft 525 kts 129°
2026-05-07 14:06 21.93602 -159.28622 27744 ft 530 kts 122°
2026-05-07 14:06 21.91691 -159.25258 26723 ft 524 kts 121°
2026-05-07 14:06 21.89858 -159.21989 25975 ft 511 kts 121°
2026-05-07 14:07 21.88028 -159.18720 25472 ft 502 kts 121°
2026-05-07 14:07 21.86243 -159.15535 24910 ft 496 kts 121°
2026-05-07 14:07 21.84465 -159.12364 24277 ft 492 kts 121°
2026-05-07 14:07 21.82714 -159.09250 23639 ft 487 kts 121°
2026-05-07 14:08 21.80981 -159.06169 23025 ft 483 kts 122°
2026-05-07 14:08 21.79257 -159.03105 22422 ft 478 kts 121°
2026-05-07 14:08 21.77530 -159.00043 21783 ft 475 kts 121°
2026-05-07 14:08 21.75838 -158.97043 21147 ft 471 kts 121°
2026-05-07 14:09 21.74155 -158.94060 20525 ft 468 kts 121°
2026-05-07 14:09 21.72463 -158.91066 20125 ft 460 kts 121°
2026-05-07 14:09 21.70810 -158.88139 20075 ft 464 kts 121°
2026-05-07 14:09 21.69138 -158.85184 20070 ft 463 kts 121°
2026-05-07 14:10 21.67466 -158.82228 20069 ft 463 kts 121°
2026-05-07 14:10 21.65809 -158.79301 20069 ft 462 kts 121°
2026-05-07 14:10 21.64119 -158.76318 20068 ft 462 kts 121°
2026-05-07 14:10 21.62459 -158.73390 20068 ft 461 kts 121°
2026-05-07 14:11 21.60786 -158.70439 20069 ft 462 kts 121°
2026-05-07 14:11 21.59112 -158.67491 20069 ft 462 kts 121°
2026-05-07 14:11 21.57462 -158.64584 19961 ft 453 kts 121°
2026-05-07 14:11 21.55836 -158.61723 19425 ft 451 kts 121°
2026-05-07 14:12 21.54198 -158.58841 18689 ft 452 kts 121°
2026-05-07 14:12 21.52581 -158.55997 18015 ft 450 kts 121°
2026-05-07 14:12 21.50953 -158.53136 17443 ft 446 kts 121°
2026-05-07 14:12 21.49348 -158.50317 16877 ft 442 kts 121°
2026-05-07 14:13 21.47755 -158.47520 16293 ft 439 kts 121°
2026-05-07 14:13 21.46173 -158.44743 15738 ft 435 kts 121°
2026-05-07 14:13 21.44627 -158.41942 15153 ft 432 kts 120°
2026-05-07 14:13 21.43099 -158.39183 14588 ft 428 kts 121°
2026-05-07 14:14 21.41582 -158.36502 14040 ft 425 kts 122°
2026-05-07 14:14 21.40014 -158.33784 13457 ft 422 kts 122°
2026-05-07 14:14 21.38461 -158.31128 12883 ft 419 kts 123°
2026-05-07 14:14 21.36916 -158.28511 12369 ft 415 kts 123°
2026-05-07 14:15 21.35356 -158.25931 11840 ft 410 kts 123°
2026-05-07 14:15 21.34046 -158.23227 11291 ft 407 kts 114°
2026-05-07 14:15 21.32630 -158.20644 10698 ft 403 kts 132°
2026-05-07 14:15 21.30457 -158.18854 10137 ft 397 kts 156°
2026-05-07 14:16 21.27814 -158.18210 9978 ft 377 kts 181°
2026-05-07 14:16 21.25333 -158.18721 9967 ft 357 kts 204°
2026-05-07 14:16 21.23273 -158.20142 9964 ft 349 kts 225°
2026-05-07 14:16 21.21859 -158.22214 9965 ft 347 kts 245°
2026-05-07 14:17 21.21157 -158.24657 9967 ft 347 kts 261°
2026-05-07 14:17 21.21161 -158.27243 9962 ft 348 kts 280°
2026-05-07 14:17 21.21857 -158.29707 9966 ft 348 kts 292°
2026-05-07 14:17 21.22920 -158.32033 9970 ft 349 kts 298°
2026-05-07 14:18 21.24142 -158.34274 9969 ft 349 kts 301°
2026-05-07 14:18 21.25504 -158.36435 9954 ft 349 kts 311°
2026-05-07 14:18 21.27396 -158.38043 9955 ft 351 kts 332°
2026-05-07 14:18 21.29728 -158.38827 9958 ft 353 kts 353°
2026-05-07 14:19 21.32194 -158.38650 9959 ft 355 kts 14°
2026-05-07 14:19 21.34409 -158.37535 9959 ft 354 kts 36°
2026-05-07 14:19 21.36060 -158.35678 9954 ft 339 kts 57°
2026-05-07 14:19 21.36951 -158.33409 9956 ft 323 kts 78°
2026-05-07 14:20 21.37067 -158.31073 9961 ft 307 kts 98°
2026-05-07 14:20 21.36500 -158.28912 9961 ft 300 kts 116°
2026-05-07 14:20 21.35472 -158.26970 9808 ft 297 kts 123°
2026-05-07 14:20 21.34368 -158.25098 9487 ft 297 kts 123°
2026-05-07 14:21 21.33256 -158.23241 9205 ft 296 kts 123°
2026-05-07 14:21 21.32104 -158.21419 8935 ft 294 kts 133°
2026-05-07 14:21 21.30506 -158.20093 8623 ft 290 kts 156°
2026-05-07 14:21 21.28569 -158.19579 8292 ft 287 kts 180°
2026-05-07 14:22 21.26630 -158.19939 8015 ft 282 kts 205°
2026-05-07 14:22 21.25009 -158.21111 7975 ft 282 kts 228°
2026-05-07 14:22 21.23962 -158.22845 7967 ft 281 kts 250°
2026-05-07 14:22 21.23628 -158.24890 7962 ft 280 kts 273°
2026-05-07 14:23 21.24068 -158.26921 7958 ft 281 kts 295°
2026-05-07 14:23 21.25019 -158.28734 7974 ft 280 kts 301°
2026-05-07 14:23 21.26064 -158.30496 7976 ft 280 kts 302°
2026-05-07 14:23 21.27129 -158.32265 7973 ft 281 kts 302°
2026-05-07 14:24 21.28214 -158.33987 7958 ft 281 kts 310°
2026-05-07 14:24 21.29721 -158.35298 7956 ft 283 kts 333°
2026-05-07 14:24 21.31612 -158.35879 7957 ft 284 kts 356°
2026-05-07 14:24 21.33589 -158.35606 7960 ft 286 kts 20°
2026-05-07 14:25 21.35275 -158.34528 7963 ft 288 kts 43°
2026-05-07 14:25 21.36444 -158.32776 7964 ft 288 kts 68°
2026-05-07 14:25 21.36853 -158.30684 7968 ft 290 kts 91°
2026-05-07 14:25 21.36443 -158.28592 7969 ft 290 kts 115°
2026-05-07 14:26 21.35430 -158.26730 7984 ft 290 kts 123°
2026-05-07 14:26 21.34317 -158.24928 7979 ft 290 kts 124°
2026-05-07 14:26 21.33203 -158.23114 7981 ft 289 kts 123°
2026-05-07 14:26 21.32021 -158.21365 7968 ft 289 kts 137°
2026-05-07 14:27 21.30353 -158.20212 7975 ft 287 kts 162°
2026-05-07 14:27 21.28385 -158.19931 7976 ft 285 kts 188°
2026-05-07 14:27 21.26518 -158.20561 7971 ft 282 kts 212°
2026-05-07 14:27 21.25080 -158.21964 7969 ft 280 kts 237°
2026-05-07 14:28 21.24323 -158.23872 7968 ft 280 kts 261°
2026-05-07 14:28 21.24375 -158.25941 7961 ft 280 kts 285°
2026-05-07 14:28 21.25179 -158.27835 7975 ft 281 kts 301°
2026-05-07 14:28 21.26235 -158.29594 7976 ft 281 kts 303°
2026-05-07 14:29 21.27309 -158.31346 7979 ft 281 kts 303°
2026-05-07 14:29 21.28381 -158.33101 7973 ft 280 kts 304°
2026-05-07 14:29 21.29755 -158.34561 7960 ft 281 kts 328°
2026-05-07 14:29 21.31601 -158.35286 7959 ft 282 kts 353°
2026-05-07 14:30 21.33555 -158.35112 7957 ft 285 kts 18°
2026-05-07 14:30 21.35265 -158.34068 7959 ft 288 kts 43°
2026-05-07 14:30 21.36421 -158.32309 7959 ft 289 kts 69°
2026-05-07 14:30 21.36756 -158.30193 7964 ft 290 kts 95°
2026-05-07 14:31 21.36218 -158.28142 7968 ft 289 kts 119°
2026-05-07 14:31 21.35167 -158.26300 7981 ft 289 kts 124°
2026-05-07 14:31 21.34063 -158.24515 7980 ft 288 kts 124°
2026-05-07 14:31 21.32963 -158.22722 7982 ft 288 kts 123°
2026-05-07 14:32 21.31683 -158.21054 7973 ft 287 kts 143°
2026-05-07 14:32 21.29928 -158.20106 7976 ft 286 kts 168°
2026-05-07 14:32 21.27956 -158.20046 7975 ft 284 kts 193°
2026-05-07 14:32 21.26140 -158.20891 7970 ft 283 kts 219°
2026-05-07 14:33 21.24846 -158.22461 7970 ft 282 kts 243°
2026-05-07 14:33 21.24290 -158.24406 7919 ft 272 kts 267°
2026-05-07 14:33 21.24494 -158.26378 7645 ft 267 kts 289°
2026-05-07 14:33 21.25345 -158.28140 7303 ft 266 kts 303°
2026-05-07 14:34 21.26350 -158.29779 7017 ft 264 kts 303°
2026-05-07 14:34 21.27366 -158.31438 6704 ft 263 kts 303°
2026-05-07 14:34 21.28366 -158.33081 6393 ft 262 kts 304°
2026-05-07 14:34 21.29602 -158.34482 6044 ft 262 kts 326°
2026-05-07 14:35 21.31267 -158.35236 5970 ft 260 kts 350°
2026-05-07 14:35 21.33064 -158.35236 5961 ft 262 kts 12°
2026-05-07 14:35 21.34756 -158.34465 5961 ft 264 kts 36°
2026-05-07 14:35 21.36024 -158.33044 5963 ft 266 kts 59°
2026-05-07 14:36 21.36667 -158.31203 5965 ft 267 kts 82°
2026-05-07 14:36 21.36575 -158.29222 5968 ft 267 kts 106°
2026-05-07 14:36 21.35796 -158.27422 5983 ft 268 kts 121°
2026-05-07 14:36 21.34798 -158.25725 5969 ft 268 kts 119°
2026-05-07 14:37 21.34216 -158.23833 5621 ft 268 kts 97°
2026-05-07 14:37 21.33862 -158.19844 4896 ft 271 kts 90°
2026-05-07 14:37 21.33771 -158.17825 4522 ft 272 kts 99°
2026-05-07 14:38 21.33400 -158.15887 4159 ft 255 kts 102°
2026-05-07 14:38 21.33019 -158.14128 3831 ft 244 kts 102°
2026-05-07 14:38 21.32642 -158.12422 3510 ft 234 kts 102°
2026-05-07 14:38 21.32300 -158.10770 3187 ft 223 kts 95°
2026-05-07 14:39 21.32354 -158.09229 2847 ft 215 kts 78°
2026-05-07 14:39 21.32553 -158.07648 2560 ft 209 kts 85°
2026-05-07 14:39 21.32568 -158.06125 2273 ft 203 kts 89°
2026-05-07 14:39 21.32540 -158.04619 1994 ft 200 kts 89°
2026-05-07 14:40 21.32535 -158.03145 1725 ft 196 kts 88°
2026-05-07 14:40 21.32534 -158.01729 1423 ft 182 kts 88°
2026-05-07 14:40 21.32530 -158.00423 1193 ft 171 kts 88°
2026-05-07 14:40 21.32530 -157.99229 1003 ft 151 kts 88°
2026-05-07 14:41 21.32516 -157.98122 737 ft 146 kts 88°
2026-05-07 14:41 21.32527 -157.97017 537 ft 149 kts 88°
2026-05-07 14:41 21.32529 -157.95900 347 ft 148 kts 88°
2026-05-07 14:41 21.32526 -157.94795 170 ft 152 kts 89°
2026-05-07 14:42 21.32524 -157.93652 35 ft 146 kts 88°
2026-05-07 14:42 21.32525 -157.92705 39 ft 103 kts 89°
2026-05-07 14:42 21.32525 -157.92128 35 ft 49 kts 90°
2026-05-07 14:42 21.32525 -157.91907 28 ft 16 kts 89°
2026-05-07 14:43 21.32550 -157.91829 28 ft 6 kts 36°
2026-05-07 14:43 21.32577 -157.91818 29 ft 2 kts
2026-05-07 14:43 21.32593 -157.91820 30 ft 2 kts 351°
2026-05-07 14:43 21.32617 -157.91832 31 ft 6 kts 327°
2026-05-07 14:44 21.32649 -157.91855 32 ft 3 kts 327°
2026-05-07 14:44 21.32658 -157.91861 33 ft 0 kts 327°
2026-05-07 14:44 21.32660 -157.91862 33 ft 0 kts 327°
2026-05-07 14:44 21.32675 -157.91873 34 ft 4 kts 327°
2026-05-07 14:45 21.32707 -157.91896 35 ft 6 kts 326°
2026-05-07 14:45 21.32753 -157.91930 38 ft 8 kts 322°
2026-05-07 14:45 21.32773 -157.91969 39 ft 4 kts 276°
2026-05-07 14:45 21.32774 -157.92018 40 ft 8 kts 270°
2026-05-07 14:46 21.32773 -157.92105 40 ft 13 kts 270°
2026-05-07 14:46 21.32799 -157.92174 42 ft 7 kts 338°
2026-05-07 14:46 21.32846 -157.92172 42 ft 7 kts
2026-05-07 14:46 21.32906 -157.92163 44 ft 9 kts
2026-05-07 14:47 21.32980 -157.92149 45 ft 10 kts 10°
2026-05-07 14:47 21.33044 -157.92137 47 ft 7 kts
2026-05-07 14:47 21.33084 -157.92129 49 ft 4 kts
2026-05-07 14:47 21.33101 -157.92127 49 ft 0 kts
2026-05-07 14:48 21.33102 -157.92127 49 ft 0 kts